DW6912 Weather Reports


Display with metric or nautical units.
time (UTC)temp
F
wind
direction
speed
MPH
gust
MPH
rain 1hr
in
rain 24hr
in
rain mn
in
humidity
%
barometer
mb
20260510070500 51 98 1.0 2.0 0.00 0.20 0.00 95 1009.2
20260510070400 51 98 1.0 2.0 0.00 0.20 0.00 95 1009.3
20260510070300 51 98 2.0 2.0 0.00 0.20 0.00 95 1009.3
20260510070100 51 98 1.0 2.0 0.00 0.20 0.00 95 1009.3
20260510070000 51 98 1.0 2.0 0.00 0.20 0.00 95 1009.3
20260510065900 51 98 2.0 2.0 0.00 0.20 0.00 95 1009.4
20260510065758 51 98 1.0 2.0 0.00 0.20 0.00 95 1009.4
20260510065700 51 98 0.0 2.0 0.00 0.20 0.00 95 1009.4
20260510065558 51 98 0.0 0.0 0.00 0.20 0.00 95 1009.4
20260510065257 51 98 0.0 0.0 0.00 0.20 0.00 95 1009.5
20260510065158 51 98 0.0 0.0 0.00 0.20 0.00 95 1009.5
20260510065058 51 98 0.0 0.0 0.00 0.20 0.00 95 1009.5
20260510064959 51 98 0.0 0.0 0.00 0.20 0.00 95 1009.5
20260510064659 51 98 0.0 1.0 0.00 0.20 0.00 95 1009.4
20260510064558 51 98 0.0 1.0 0.00 0.20 0.00 95 1009.4
20260510064400 51 98 0.0 1.0 0.00 0.20 0.00 95 1009.5
20260510064159 51 98 0.0 1.0 0.00 0.20 0.00 95 1009.6
20260510064059 51 98 0.0 1.0 0.00 0.20 0.00 95 1009.5
20260510063959 51 98 0.0 1.0 0.00 0.20 0.00 95 1009.5
20260510063759 51 98 0.0 1.0 0.00 0.20 0.00 95 1009.5
20260510063658 51 98 0.0 0.0 0.00 0.20 0.00 95 1009.5
20260510063558 51 98 0.0 0.0 0.00 0.20 0.00 95 1009.5
20260510063358 52 98 0.0 0.0 0.00 0.20 0.00 95 1009.5
20260510063300 52 98 0.0 0.0 0.00 0.20 0.00 95 1009.5
20260510063159 52 98 0.0 1.0 0.00 0.20 0.00 95 1009.5
20260510063006 52 98 0.0 1.0 0.00 0.20 0.00 95 1009.5
20260510062900 52 98 0.0 1.0 0.00 0.20 0.00 95 1009.5
20260510062658 52 98 0.0 1.0 0.00 0.20 0.00 95 1009.5
20260510062559 52 98 0.0 2.0 0.00 0.20 0.00 95 1009.5
20260510062500 52 98 0.0 2.0 0.00 0.20 0.00 95 1009.5
20260510062358 52 98 0.0 2.0 0.00 0.20 0.00 95 1009.5
20260510062258 52 98 0.0 2.0 0.00 0.20 0.00 95 1009.6
20260510062158 52 98 0.0 2.0 0.00 0.20 0.00 95 1009.7
20260510062100 52 98 0.0 3.0 0.00 0.20 0.00 95 1009.7
20260510062000 52 98 0.0 3.0 0.00 0.20 0.00 95 1009.7
20260510061859 52 98 0.0 3.0 0.00 0.20 0.00 95 1009.7
20260510061758 52 98 0.0 3.0 0.00 0.20 0.00 95 1009.6
20260510061658 52 98 0.0 3.0 0.00 0.20 0.00 95 1009.5
20260510061558 52 98 1.0 3.0 0.00 0.20 0.00 95 1009.6
20260510061459 52 98 1.0 3.0 0.00 0.20 0.00 95 1009.7
20260510061400 52 98 1.0 3.0 0.00 0.20 0.00 95 1009.7
20260510061159 52 98 2.0 3.0 0.00 0.20 0.00 95 1009.9
20260510061059 52 97 0.0 3.0 0.00 0.20 0.00 95 1009.9
20260510060959 52 97 1.0 3.0 0.00 0.20 0.00 95 1009.9
20260510060858 52 97 1.0 3.0 0.00 0.20 0.00 95 1010.0
20260510060659 52 97 0.0 2.0 0.00 0.20 0.00 95 1010.2
20260510060558 52 96 0.0 5.0 0.00 0.20 0.00 95 1010.2
20260510060458 52 96 1.0 5.0 0.00 0.20 0.00 95 1010.2
20260510060359 52 96 1.0 5.0 0.00 0.20 0.00 95 1010.2
20260510060258 52 97 0.0 11.0 0.00 0.20 0.00 95 1010.1
20260510060200 52 97 1.0 18.0 0.00 0.20 0.00 95 1010.1
20260510060059 52 344 1.0 18.0 0.00 0.20 0.00 95 1010.2
20260510060004 52 344 0.0 18.0 0.00 0.20 0.00 95 1010.3
20260510055900 51 344 0.0 18.0 0.00 0.20 0.00 95 1010.4
20260510055801 51 344 1.0 18.0 0.00 0.20 0.00 95 1010.3
20260510055701 51 347 3.0 18.0 0.00 0.20 0.00 95 1010.2
20260510055601 51 10 3.0 18.0 0.00 0.20 0.00 95 1009.8
20260510055505 51 94 0.0 18.0 0.00 0.20 0.00 95 1009.9
20260510055400 50 329 1.0 18.0 0.00 0.20 0.00 95 1010.2
20260510055200 49 23 4.0 14.0 0.00 0.20 0.00 95 1010.3
20260510055100 49 264 2.0 5.0 0.00 0.20 0.00 95 1010.3
20260510055004 49 284 3.0 5.0 0.00 0.20 0.00 95 1010.1
20260510054900 49 320 5.0 5.0 0.00 0.20 0.00 95 1009.6
20260510054800 49 148 0.0 0.0 0.00 0.20 0.00 95 1009.5
20260510054700 49 148 0.0 0.0 0.00 0.20 0.00 95 1009.4
20260510054559 49 148 0.0 0.0 0.00 0.20 0.00 95 1009.4
20260510054504 49 148 0.0 0.0 0.00 0.20 0.00 95 1009.4
20260510054259 49 148 0.0 0.0 0.00 0.20 0.00 95 1009.4
20260510054201 49 148 0.0 0.0 0.00 0.20 0.00 95 1009.4
20260510054100 49 148 0.0 0.0 0.00 0.20 0.00 95 1009.4
20260510054005 49 148 0.0 0.0 0.00 0.20 0.00 95 1009.4
20260510053900 49 148 0.0 0.0 0.00 0.20 0.00 95 1009.4
20260510053802 49 148 0.0 0.0 0.00 0.20 0.00 95 1009.5
20260510053559 49 148 0.0 0.0 0.00 0.20 0.00 95 1009.4
20260510053505 49 148 0.0 0.0 0.00 0.20 0.00 95 1009.5
20260510053400 49 148 0.0 0.0 0.00 0.20 0.00 95 1009.5
20260510053259 49 148 0.0 0.0 0.00 0.20 0.00 95 1009.5
20260510053200 49 148 0.0 0.0 0.00 0.20 0.00 95 1009.5
20260510053100 49 148 0.0 0.0 0.00 0.20 0.00 95 1009.5
20260510053005 49 148 0.0 0.0 0.00 0.20 0.00 95 1009.6
20260510052901 49 148 0.0 0.0 0.00 0.20 0.00 95 1009.6
20260510052759 49 148 0.0 0.0 0.00 0.20 0.00 95 1009.7
20260510052700 49 148 0.0 0.0 0.00 0.20 0.00 95 1009.7
20260510052500 49 148 0.0 0.0 0.00 0.20 0.00 95 1009.7
20260510052359 49 148 0.0 0.0 0.00 0.20 0.00 95 1009.7
20260510052200 49 148 0.0 0.0 0.00 0.20 0.00 94 1009.7
20260510052059 49 148 0.0 0.0 0.00 0.20 0.00 94 1009.7
20260510052004 49 148 0.0 0.0 0.00 0.20 0.00 94 1009.7
20260510051900 49 148 0.0 0.0 0.00 0.20 0.00 94 1009.8
20260510051801 49 148 0.0 0.0 0.00 0.20 0.00 94 1009.8
20260510051700 49 148 0.0 0.0 0.00 0.20 0.00 95 1009.8
20260510051506 49 148 0.0 0.0 0.00 0.20 0.00 95 1009.9
20260510051359 49 148 0.0 0.0 0.00 0.20 0.00 95 1009.8
20260510051300 49 148 0.0 0.0 0.00 0.20 0.00 95 1009.8
20260510051201 49 148 0.0 0.0 0.00 0.20 0.00 95 1009.8
20260510051101 49 148 0.0 0.0 0.00 0.20 0.00 95 1009.8
20260510051004 49 148 0.0 0.0 0.00 0.20 0.00 95 1009.8
20260510050900 49 148 0.0 0.0 0.00 0.20 0.00 95 1009.8
20260510050800 49 148 0.0 0.0 0.00 0.20 0.00 95 1009.8
20260510050701 49 148 0.0 0.0 0.00 0.20 0.00 94 1009.8
20260510050601 49 148 0.0 0.0 0.00 0.20 0.00 94 1009.8
20260510050506 49 148 0.0 0.0 0.00 0.20 0.00 94 1009.8
20260510050400 49 148 0.0 0.0 0.00 0.20 0.00 94 1009.7
20260510050301 49 148 0.0 0.0 0.00 0.20 0.00 95 1009.7
20260510050200 49 148 0.0 0.0 0.00 0.20 0.00 95 1009.7
20260510050100 49 148 0.0 0.0 0.00 0.20 0.00 95 1009.7
20260510050005 49 148 0.0 0.0 0.00 0.20 0.00 95 1009.7
20260510045859 49 148 0.0 0.0 0.00 0.20 0.00 95 1009.6
20260510045800 49 148 0.0 0.0 0.00 0.20 0.00 94 1009.6
20260510045658 49 148 0.0 0.0 0.00 0.20 0.00 94 1009.6
20260510045559 49 148 0.0 0.0 0.00 0.20 0.00 94 1009.6
20260510045505 49 148 0.0 0.0 0.00 0.20 0.00 94 1009.6
20260510045359 49 148 0.0 0.0 0.00 0.20 0.00 94 1009.6
20260510045258 49 148 0.0 0.0 0.00 0.20 0.00 94 1009.5
20260510045059 49 148 0.0 0.0 0.00 0.20 0.00 94 1009.5
20260510044959 49 148 0.0 0.0 0.00 0.20 0.00 94 1009.5
20260510044859 49 148 0.0 0.0 0.00 0.20 0.00 94 1009.4
20260510044759 49 148 0.0 0.0 0.00 0.20 0.00 94 1009.5
20260510044700 49 148 0.0 0.0 0.00 0.20 0.00 94 1009.4
20260510044558 49 148 0.0 0.0 0.00 0.20 0.00 94 1009.4
20260510044501 49 148 0.0 0.0 0.00 0.20 0.00 94 1009.4
20260510044359 49 148 0.0 0.0 0.00 0.20 0.00 94 1009.3
20260510044300 49 148 0.0 0.0 0.00 0.20 0.00 94 1009.4
20260510044058 49 148 0.0 0.0 0.00 0.20 0.00 94 1009.2
20260510044000 49 148 0.0 0.0 0.00 0.20 0.00 94 1009.2
20260510043858 49 148 0.0 0.0 0.00 0.20 0.00 94 1009.2
20260510043758 49 148 0.0 0.0 0.00 0.20 0.00 94 1009.2
20260510043558 49 148 0.0 0.0 0.00 0.20 0.00 94 1009.2
20260510043503 49 148 0.0 0.0 0.00 0.20 0.00 94 1009.2
20260510043359 49 148 0.0 0.0 0.00 0.20 0.00 94 1009.2
20260510043258 49 148 0.0 0.0 0.00 0.20 0.00 94 1009.2
20260510043059 49 148 0.0 0.0 0.00 0.20 0.00 94 1009.2
20260510043000 49 148 0.0 0.0 0.00 0.20 0.00 94 1009.1
20260510042759 49 148 0.0 0.0 0.00 0.20 0.00 94 1009.1
20260510042658 49 148 0.0 0.0 0.00 0.20 0.00 94 1009.1
20260510042558 49 148 0.0 0.0 0.00 0.20 0.00 94 1009.2
20260510042459 49 148 0.0 0.0 0.00 0.20 0.00 94 1009.2
20260510042358 50 148 0.0 0.0 0.00 0.20 0.00 94 1009.2
20260510042158 50 148 0.0 0.0 0.00 0.20 0.00 94 1009.1
20260510042059 50 148 0.0 0.0 0.00 0.20 0.00 94 1009.1
20260510041858 49 148 0.0 0.0 0.00 0.20 0.00 94 1009.1
20260510041759 49 148 0.0 0.0 0.00 0.20 0.00 94 1009.1
20260510041658 49 148 0.0 0.0 0.00 0.20 0.00 94 1009.1
20260510041559 49 148 0.0 0.0 0.00 0.20 0.00 94 1009.1
20260510041358 49 148 0.0 0.0 0.00 0.20 0.00 94 1009.1
20260510041259 49 148 0.0 0.0 0.00 0.20 0.00 94 1009.1
20260510041159 49 148 0.0 0.0 0.00 0.20 0.00 94 1009.1
20260510041001 49 148 0.0 0.0 0.00 0.20 0.00 94 1009.1
20260510040859 49 148 0.0 0.0 0.00 0.20 0.00 94 1009.1
20260510040759 49 148 0.0 0.0 0.00 0.20 0.00 94 1009.1
20260510040658 49 148 0.0 0.0 0.00 0.20 0.00 94 1009.1
20260510040559 49 148 0.0 0.0 0.00 0.20 0.00 94 1009.1
20260510040459 49 148 0.0 0.0 0.00 0.20 0.00 94 1009.1
20260510040259 49 148 0.0 0.0 0.00 0.20 0.00 94 1009.2
20260510040202 49 148 0.0 0.0 0.00 0.20 0.00 94 1009.2
20260510040101 49 148 0.0 0.0 0.00 0.20 0.00 94 1009.2
20260510040006 49 148 0.0 0.0 0.00 0.20 0.20 94 1009.1
20260510035801 49 148 0.0 0.0 0.00 0.20 0.20 94 1009.1
20260510035700 49 148 0.0 0.0 0.00 0.20 0.20 94 1009.1
20260510035505 49 148 0.0 0.0 0.00 0.20 0.20 94 1009.1
20260510035401 49 148 0.0 0.0 0.00 0.20 0.20 94 1009.2
20260510035300 49 148 0.0 0.0 0.00 0.20 0.20 94 1009.2
20260510035201 49 148 0.0 0.0 0.00 0.20 0.20 94 1009.2
20260510035102 49 148 0.0 0.0 0.00 0.20 0.20 94 1009.2
20260510035006 49 148 0.0 0.0 0.00 0.20 0.20 94 1009.2
20260510034801 49 148 0.0 0.0 0.00 0.20 0.20 94 1009.2
20260510034701 49 148 0.0 0.0 0.00 0.20 0.20 94 1009.2
20260510034600 49 148 0.0 0.0 0.00 0.20 0.20 94 1009.2
20260510034507 49 148 0.0 0.0 0.00 0.20 0.20 94 1009.2
20260510034402 49 148 0.0 0.0 0.00 0.20 0.20 94 1009.2
20260510034301 49 148 0.0 0.0 0.00 0.20 0.20 94 1009.1
20260510034201 49 148 0.0 0.0 0.00 0.20 0.20 94 1009.2
20260510034100 49 148 0.0 0.0 0.00 0.20 0.20 94 1009.2
20260510034004 49 148 0.0 0.0 0.00 0.20 0.20 94 1009.2
20260510033901 49 148 0.0 0.0 0.00 0.20 0.20 94 1009.2
20260510033801 49 148 0.0 0.0 0.00 0.20 0.20 94 1009.2
20260510033601 49 148 0.0 0.0 0.00 0.20 0.20 94 1009.2
20260510033504 49 148 0.0 0.0 0.00 0.20 0.20 94 1009.2
20260510033101 49 148 0.0 0.0 0.00 0.20 0.20 94 1009.2
20260510033006 49 148 0.0 0.0 0.00 0.20 0.20 94 1009.2
20260510032901 49 148 0.0 0.0 0.00 0.20 0.20 94 1009.3
20260510032802 49 148 0.0 0.0 0.00 0.20 0.20 94 1009.3
20260510032559 49 148 0.0 0.0 0.00 0.20 0.20 94 1009.3
20260510032359 49 148 0.0 0.0 0.00 0.20 0.20 94 1009.3
20260510032306 50 148 0.0 0.0 0.00 0.20 0.20 94 1009.2
20260510032201 50 148 0.0 0.0 0.00 0.20 0.20 94 1009.2
20260510032101 50 148 0.0 0.0 0.00 0.20 0.20 93 1009.2
20260510032005 50 148 0.0 0.0 0.00 0.20 0.20 93 1009.2
20260510031901 50 148 0.0 0.0 0.00 0.20 0.20 94 1009.2
20260510031700 50 148 0.0 0.0 0.00 0.20 0.20 94 1009.1
20260510031601 50 148 0.0 0.0 0.00 0.20 0.20 93 1009.1
20260510031505 50 148 0.0 0.0 0.00 0.20 0.20 93 1009.1
20260510031301 50 148 0.0 0.0 0.00 0.20 0.20 93 1009.1
20260510031200 50 148 0.0 0.0 0.00 0.20 0.20 93 1009.1
20260510031101 50 148 0.0 0.0 0.00 0.20 0.20 94 1009.1
20260510031004 50 148 0.0 0.0 0.00 0.20 0.20 94 1009.0
20260510030901 50 148 0.0 0.0 0.00 0.20 0.20 94 1009.1
20260510030801 50 148 0.0 0.0 0.00 0.20 0.20 94 1009.0
20260510030701 50 148 0.0 0.0 0.00 0.20 0.20 94 1009.1
20260510030601 50 148 0.0 0.0 0.00 0.20 0.20 94 1009.0
20260510030505 50 148 0.0 0.0 0.00 0.20 0.20 94 1009.1
20260510030401 50 148 0.0 0.0 0.00 0.20 0.20 94 1009.1
20260510030302 50 148 0.0 0.0 0.00 0.20 0.20 94 1009.1
20260510030202 50 148 0.0 0.0 0.00 0.20 0.20 94 1009.1
20260510030007 50 148 0.0 0.0 0.00 0.20 0.20 94 1009.1
20260510025900 50 148 0.0 0.0 0.00 0.20 0.20 94 1009.1
20260510025802 50 148 0.0 0.0 0.00 0.20 0.20 94 1009.1
20260510025701 50 148 0.0 0.0 0.00 0.20 0.20 94 1009.1
20260510025505 50 148 0.0 0.0 0.00 0.20 0.20 94 1009.0
20260510025300 50 148 0.0 0.0 0.00 0.20 0.20 93 1009.0
20260510025201 50 148 0.0 0.0 0.00 0.20 0.20 93 1009.0
20260510025101 50 148 0.0 0.0 0.00 0.20 0.20 93 1009.1
20260510025005 50 148 0.0 0.0 0.00 0.20 0.20 93 1009.1
20260510024900 50 148 0.0 0.0 0.00 0.20 0.20 93 1009.1
20260510024702 50 148 0.0 0.0 0.00 0.20 0.20 93 1009.1
20260510024505 50 148 0.0 0.0 0.00 0.20 0.20 93 1009.1
20260510024401 50 148 0.0 0.0 0.00 0.20 0.20 93 1009.1
20260510024300 50 148 0.0 0.0 0.00 0.20 0.20 93 1009.0
20260510024059 50 148 0.0 0.0 0.00 0.20 0.20 93 1009.0
20260510024005 50 148 0.0 0.0 0.00 0.20 0.20 93 1009.0
20260510023902 50 148 0.0 0.0 0.00 0.20 0.20 93 1009.0
20260510023800 50 148 0.0 0.0 0.00 0.20 0.20 93 1008.9
20260510023701 50 148 0.0 0.0 0.00 0.20 0.20 93 1009.0
20260510023602 50 148 0.0 0.0 0.00 0.20 0.20 94 1009.0
20260510023507 50 148 0.0 0.0 0.00 0.20 0.20 93 1009.0
20260510023302 50 148 0.0 0.0 0.00 0.20 0.20 94 1009.0
20260510023101 50 148 0.0 0.0 0.00 0.20 0.20 94 1008.9
20260510022901 50 148 0.0 0.0 0.00 0.20 0.20 94 1008.9
20260510022701 50 148 0.0 0.0 0.00 0.20 0.20 94 1008.9
20260510022600 51 148 0.0 0.0 0.00 0.20 0.20 94 1009.0
20260510022505 51 148 0.0 0.0 0.00 0.20 0.20 94 1008.9
20260510022400 51 148 0.0 0.0 0.00 0.20 0.20 94 1009.0
20260510022300 51 148 0.0 0.0 0.00 0.20 0.20 94 1009.0
20260510022201 51 148 0.0 0.0 0.00 0.20 0.20 94 1009.0
20260510022101 51 148 0.0 0.0 0.00 0.20 0.20 93 1009.0
20260510022004 51 148 0.0 0.0 0.00 0.20 0.20 93 1009.0
20260510021902 51 148 0.0 0.0 0.00 0.20 0.20 93 1009.0
20260510021801 51 148 0.0 0.0 0.00 0.20 0.20 93 1009.1
20260510021702 51 148 0.0 0.0 0.00 0.20 0.20 93 1009.1
20260510021559 51 148 0.0 0.0 0.00 0.20 0.20 93 1009.1
20260510021505 51 148 0.0 0.0 0.00 0.20 0.20 93 1009.0
20260510021301 51 148 0.0 0.0 0.00 0.20 0.20 93 1009.0
20260510021200 51 148 0.0 0.0 0.00 0.20 0.20 93 1009.0
20260510021004 51 148 0.0 0.0 0.00 0.20 0.20 94 1009.0
20260510020900 51 148 0.0 0.0 0.00 0.20 0.20 94 1009.0
20260510020759 51 148 0.0 1.0 0.00 0.20 0.20 94 1009.0
20260510020703 51 148 0.0 2.0 0.00 0.20 0.20 94 1008.9
20260510020602 51 148 0.0 2.0 0.00 0.20 0.20 94 1009.0
20260510020504 51 148 0.0 2.0 0.00 0.20 0.20 94 1008.9
20260510020401 51 148 0.0 2.0 0.00 0.20 0.20 94 1008.9
20260510020301 51 148 0.0 2.0 0.00 0.20 0.20 94 1008.8
20260510020201 51 148 0.0 2.0 0.00 0.20 0.20 94 1008.8
20260510020101 51 148 0.0 2.0 0.00 0.20 0.20 94 1008.8
20260510015900 51 148 0.0 2.0 0.00 0.20 0.20 94 1008.8
20260510015801 51 148 0.0 2.0 0.00 0.20 0.20 94 1008.7
20260510015701 51 148 0.0 1.0 0.00 0.20 0.20 94 1008.7
20260510015601 51 148 0.0 2.0 0.00 0.20 0.20 94 1008.7
20260510015505 51 148 0.0 2.0 0.00 0.20 0.20 94 1008.8
20260510015400 51 148 0.0 2.0 0.00 0.20 0.20 94 1008.7
20260510015301 51 148 0.0 2.0 0.00 0.20 0.20 94 1008.6
20260510015201 51 148 0.0 2.0 0.00 0.20 0.20 94 1008.6
20260510015102 51 148 0.0 2.0 0.00 0.20 0.20 94 1008.6
20260510014901 51 148 0.0 2.0 0.00 0.20 0.20 94 1008.6
20260510014801 52 148 0.0 2.0 0.00 0.20 0.20 94 1008.6
20260510014701 52 148 1.0 2.0 0.00 0.20 0.20 94 1008.6
20260510014601 52 148 1.0 2.0 0.00 0.20 0.20 94 1008.5
20260510014504 52 148 0.0 2.0 0.00 0.20 0.20 94 1008.5
20260510014401 52 148 2.0 2.0 0.00 0.20 0.20 94 1008.5
20260510014201 52 148 0.0 2.0 0.00 0.20 0.20 94 1008.5
20260510014101 52 148 0.0 2.0 0.00 0.20 0.20 94 1008.5
20260510014005 52 148 0.0 2.0 0.00 0.20 0.20 94 1008.5
20260510013902 52 148 0.0 2.0 0.00 0.20 0.20 94 1008.4
20260510013801 52 148 0.0 2.0 0.00 0.20 0.20 94 1008.4
20260510013604 52 148 0.0 2.0 0.00 0.20 0.20 94 1008.4
20260510013505 52 148 0.0 2.0 0.00 0.20 0.20 94 1008.4
20260510013402 52 148 1.0 2.0 0.00 0.20 0.20 94 1008.4
20260510013300 52 148 2.0 2.0 0.00 0.20 0.20 94 1008.4
20260510013200 52 148 0.0 2.0 0.00 0.20 0.20 94 1008.4
20260510013101 52 148 2.0 2.0 0.00 0.20 0.20 94 1008.3
20260510013006 52 148 1.0 3.0 0.00 0.20 0.20 94 1008.3
20260510012900 52 148 0.0 3.0 0.00 0.20 0.20 94 1008.3
20260510012700 52 148 1.0 3.0 0.00 0.20 0.20 94 1008.3
20260510012601 52 148 0.0 3.0 0.00 0.20 0.20 94 1008.3
20260510012505 52 148 1.0 3.0 0.00 0.20 0.20 94 1008.3
20260510012402 52 148 0.0 3.0 0.00 0.20 0.20 94 1008.3
20260510012301 52 148 0.0 3.0 0.00 0.20 0.20 94 1008.4
20260510012101 52 148 1.0 3.0 0.00 0.20 0.20 94 1008.3
20260510011901 52 148 1.0 3.0 0.00 0.20 0.20 94 1008.3
20260510011701 53 148 0.0 3.0 0.00 0.20 0.20 94 1008.4
20260510011601 53 148 0.0 3.0 0.00 0.20 0.20 95 1008.4
20260510011402 53 148 1.0 2.0 0.00 0.20 0.20 95 1008.3
20260510011201 53 148 0.0 2.0 0.00 0.20 0.20 95 1008.3
20260510011102 53 148 0.0 2.0 0.00 0.20 0.20 95 1008.3
20260510010902 53 148 0.0 2.0 0.00 0.20 0.20 95 1008.3
20260510010800 53 148 0.0 2.0 0.00 0.20 0.20 95 1008.2
20260510010700 53 148 1.0 2.0 0.00 0.20 0.20 95 1008.2
20260510010601 53 148 0.0 1.0 0.00 0.20 0.20 95 1008.2
20260510010504 53 148 0.0 1.0 0.00 0.20 0.20 95 1008.2
20260510010401 53 148 0.0 1.0 0.00 0.20 0.20 95 1008.2
20260510010301 53 148 0.0 1.0 0.00 0.20 0.20 95 1008.2
20260510010201 53 148 0.0 1.0 0.00 0.20 0.20 95 1008.1
20260510010100 53 148 0.0 1.0 0.00 0.20 0.20 95 1008.1
20260510010005 53 148 0.0 1.0 0.00 0.20 0.20 95 1008.1
20260510005901 53 148 0.0 1.0 0.00 0.20 0.20 95 1008.1
20260510005701 53 148 0.0 1.0 0.00 0.20 0.20 95 1008.1
20260510005601 53 148 0.0 1.0 0.00 0.20 0.20 95 1008.0
20260510005505 53 148 0.0 1.0 0.00 0.20 0.20 95 1008.0
20260510005402 54 148 0.0 1.0 0.00 0.20 0.20 95 1007.9
20260510005201 54 148 1.0 1.0 0.00 0.20 0.20 95 1007.9
20260510005101 54 148 0.0 1.0 0.00 0.20 0.20 95 1007.9
20260510005005 54 148 0.0 1.0 0.00 0.20 0.20 95 1007.9
20260510004901 54 148 0.0 1.0 0.00 0.20 0.20 95 1008.0
20260510004801 54 148 0.0 2.0 0.00 0.20 0.20 95 1007.9
20260510004701 54 148 0.0 2.0 0.00 0.20 0.20 95 1007.9
20260510004505 54 148 0.0 2.0 0.00 0.20 0.20 95 1007.9
20260510004402 54 148 0.0 2.0 0.00 0.20 0.20 95 1007.9
20260510004301 54 148 0.0 2.0 0.00 0.20 0.20 95 1007.9
20260510004200 54 148 0.0 2.0 0.00 0.20 0.20 95 1007.9
20260510004102 54 148 0.0 2.0 0.00 0.20 0.20 95 1007.9
20260510004005 54 148 1.0 2.0 0.00 0.20 0.20 95 1008.0
20260510003902 54 148 2.0 2.0 0.00 0.20 0.20 94 1008.0
20260510003800 54 148 1.0 2.0 0.00 0.20 0.20 94 1008.0
20260510003702 54 148 1.0 2.0 0.00 0.20 0.20 94 1008.0
20260510003602 54 148 0.0 2.0 0.00 0.20 0.20 94 1008.0
20260510003504 54 148 0.0 2.0 0.00 0.20 0.20 94 1008.0
20260510003400 55 148 0.0 2.0 0.00 0.20 0.20 94 1008.0
20260510003301 55 148 0.0 2.0 0.00 0.20 0.20 94 1008.0
20260510003201 55 148 0.0 2.0 0.00 0.20 0.20 94 1008.0
20260510003100 55 148 0.0 2.0 0.00 0.20 0.20 94 1008.0
20260510003005 55 148 1.0 2.0 0.00 0.20 0.20 94 1008.1
20260510002901 55 148 0.0 1.0 0.00 0.20 0.20 94 1008.0
20260510002801 55 148 1.0 1.0 0.00 0.20 0.20 94 1007.9
20260510002702 55 148 0.0 1.0 0.00 0.20 0.20 94 1008.0
20260510002601 55 148 0.0 1.0 0.00 0.20 0.20 94 1008.1
20260510002505 55 148 0.0 2.0 0.00 0.20 0.20 94 1008.0
20260510002401 55 148 0.0 2.0 0.00 0.20 0.20 93 1008.0
20260510002300 55 148 0.0 2.0 0.00 0.20 0.20 93 1008.0
20260510002100 56 148 1.0 2.0 0.00 0.20 0.20 93 1007.9
20260510002005 56 148 1.0 2.0 0.00 0.20 0.20 93 1007.9
20260510001901 56 148 0.0 2.0 0.00 0.20 0.20 93 1007.9
20260510001800 56 148 1.0 2.0 0.00 0.20 0.20 93 1007.8
20260510001702 56 148 0.0 2.0 0.00 0.20 0.20 93 1007.8
20260510001505 56 148 0.0 1.0 0.00 0.20 0.20 92 1007.7
20260510001400 56 148 0.0 0.0 0.00 0.20 0.20 92 1007.7
20260510001101 57 148 0.0 0.0 0.00 0.20 0.20 92 1007.7
20260510001005 57 148 0.0 1.0 0.00 0.20 0.20 92 1007.7
20260510000901 57 148 0.0 1.0 0.00 0.20 0.20 91 1007.7
20260510000801 57 148 0.0 1.0 0.00 0.20 0.20 91 1007.6
20260510000700 57 148 0.0 1.0 0.00 0.20 0.20 91 1007.6
20260510000601 57 148 0.0 1.0 0.00 0.20 0.20 91 1007.6
20260510000505 57 148 0.0 2.0 0.00 0.20 0.20 91 1007.5
20260510000403 57 148 0.0 2.0 0.00 0.20 0.20 91 1007.6
20260510000304 57 148 0.0 2.0 0.00 0.20 0.20 91 1007.5
20260510000100 58 148 0.0 3.0 0.00 0.20 0.20 90 1007.5
20260510000005 58 148 1.0 3.0 0.00 0.20 0.20 90 1007.5
20260509235901 58 148 0.0 3.0 0.00 0.20 0.20 90 1007.5
20260509235800 58 148 0.0 3.0 0.00 0.20 0.20 90 1007.5
20260509235659 58 148 0.0 3.0 0.00 0.20 0.20 90 1007.5
20260509235601 58 148 1.0 3.0 0.00 0.20 0.20 89 1007.5
20260509235400 58 148 1.0 3.0 0.00 0.20 0.20 89 1007.5
20260509235301 58 148 3.0 3.0 0.00 0.20 0.20 89 1007.4
20260509235202 59 158 0.0 2.0 0.00 0.20 0.20 89 1007.5
20260509235102 59 159 0.0 2.0 0.00 0.20 0.20 89 1007.5
20260509235004 59 159 0.0 2.0 0.00 0.20 0.20 88 1007.5
20260509234900 59 159 0.0 2.0 0.00 0.20 0.20 88 1007.5
20260509234800 59 158 0.0 2.0 0.00 0.20 0.20 88 1007.5
20260509234701 59 159 0.0 2.0 0.00 0.20 0.20 87 1007.5
20260509234601 59 159 1.0 2.0 0.00 0.20 0.20 87 1007.5
20260509234506 59 158 0.0 2.0 0.00 0.20 0.20 87 1007.5
20260509234400 59 159 0.0 2.0 0.00 0.20 0.20 87 1007.6
20260509234301 59 159 0.0 2.0 0.00 0.20 0.20 87 1007.5
20260509234201 59 159 0.0 2.0 0.00 0.20 0.20 86 1007.5
20260509234005 59 158 0.0 2.0 0.00 0.20 0.20 87 1007.5
20260509233902 59 159 0.0 2.0 0.00 0.20 0.20 87 1007.5
20260509233802 59 159 0.0 2.0 0.00 0.20 0.20 86 1007.5
20260509233602 59 159 0.0 2.0 0.00 0.20 0.20 87 1007.4
20260509233504 59 159 2.0 2.0 0.00 0.20 0.20 87 1007.5
20260509233400 59 159 0.0 2.0 0.00 0.20 0.20 86 1007.5
20260509233300 59 159 0.0 2.0 0.00 0.20 0.20 86 1007.5
20260509233200 59 159 0.0 2.0 0.00 0.20 0.20 86 1007.5
20260509233101 59 159 0.0 2.0 0.00 0.20 0.20 86 1007.4
20260509233005 59 159 0.0 2.0 0.00 0.20 0.20 86 1007.5
20260509232901 59 159 0.0 2.0 0.00 0.20 0.20 86 1007.5
20260509232801 59 159 1.0 2.0 0.00 0.20 0.20 86 1007.5
20260509232703 59 159 1.0 1.0 0.00 0.20 0.20 86 1007.4
20260509232505 59 159 0.0 2.0 0.00 0.20 0.20 86 1007.4
20260509232401 59 159 0.0 2.0 0.00 0.20 0.20 86 1007.3
20260509232301 59 159 1.0 2.0 0.00 0.20 0.20 86 1007.4
20260509232201 59 159 0.0 2.0 0.00 0.20 0.20 87 1007.4
20260509232101 59 159 0.0 2.0 0.00 0.20 0.20 87 1007.4
20260509232005 59 159 0.0 2.0 0.00 0.20 0.20 87 1007.4
20260509231901 59 159 0.0 2.0 0.00 0.20 0.20 86 1007.5
20260509231800 59 159 0.0 2.0 0.00 0.20 0.20 87 1007.4
20260509231601 60 159 1.0 1.0 0.00 0.20 0.20 87 1007.4
20260509231505 60 159 0.0 1.0 0.00 0.20 0.20 88 1007.5
20260509231401 60 159 0.0 0.0 0.00 0.20 0.20 88 1007.5
20260509231201 60 159 0.0 2.0 0.00 0.20 0.20 87 1007.4
20260509231100 60 159 0.0 3.0 0.00 0.20 0.20 86 1007.4
20260509231005 60 159 0.0 3.0 0.00 0.20 0.20 86 1007.4
20260509230901 60 159 0.0 3.0 0.00 0.20 0.20 86 1007.3
20260509230600 60 159 0.0 3.0 0.00 0.20 0.20 85 1007.4
20260509230505 60 159 0.0 3.0 0.00 0.20 0.20 84 1007.4
20260509230400 60 159 0.0 3.0 0.00 0.20 0.20 84 1007.5
20260509230301 60 159 0.0 3.0 0.00 0.20 0.20 85 1007.4
20260509230200 60 159 4.0 4.0 0.00 0.20 0.20 84 1007.5
20260509230007 60 158 0.0 3.0 0.00 0.20 0.20 84 1007.5
20260509225900 60 158 1.0 3.0 0.00 0.20 0.20 84 1007.5
20260509225800 60 158 1.0 3.0 0.00 0.20 0.20 84 1007.5
20260509225700 60 158 0.0 3.0 0.00 0.20 0.20 84 1007.5
20260509225505 60 158 0.0 3.0 0.00 0.20 0.20 84 1007.5
20260509225402 60 158 0.0 3.0 0.00 0.20 0.20 84 1007.4
20260509225300 60 158 0.0 3.0 0.00 0.20 0.20 85 1007.5
20260509225200 60 158 0.0 3.0 0.00 0.20 0.20 85 1007.5
20260509225101 60 158 0.0 3.0 0.00 0.20 0.20 84 1007.4
20260509225005 60 159 2.0 4.0 0.00 0.20 0.20 84 1007.4
20260509224902 60 158 1.0 2.0 0.00 0.20 0.20 84 1007.3
20260509224702 60 158 0.0 2.0 0.00 0.20 0.20 84 1007.4
20260509224600 60 158 0.0 2.0 0.00 0.20 0.20 84 1007.4
20260509224402 60 159 1.0 2.0 0.00 0.20 0.20 83 1007.4
20260509224200 60 153 0.0 3.0 0.00 0.20 0.20 83 1007.4
20260509223801 61 153 0.0 3.0 0.00 0.20 0.20 84 1007.5
20260509223701 61 153 0.0 3.0 0.00 0.20 0.20 84 1007.4
20260509223600 61 153 0.0 3.0 0.00 0.20 0.20 83 1007.4
20260509223505 61 153 0.0 3.0 0.00 0.20 0.20 83 1007.4
20260509223401 61 153 1.0 3.0 0.00 0.20 0.20 82 1007.4
20260509223301 61 153 0.0 3.0 0.00 0.20 0.20 82 1007.4
20260509223202 61 153 3.0 3.0 0.00 0.20 0.20 82 1007.4
20260509223100 61 150 1.0 3.0 0.00 0.20 0.20 83 1007.4
20260509222901 61 146 0.0 3.0 0.00 0.20 0.20 83 1007.4
20260509222800 61 146 0.0 3.0 0.00 0.20 0.20 83 1007.4
20260509222702 61 146 1.0 3.0 0.00 0.20 0.20 82 1007.4
20260509222601 61 146 2.0 5.0 0.00 0.20 0.20 82 1007.5
20260509222505 61 146 1.0 5.0 0.00 0.20 0.20 83 1007.5
20260509222401 61 146 2.0 5.0 0.00 0.20 0.20 83 1007.5
20260509222200 61 146 2.0 5.0 0.00 0.20 0.20 83 1007.5
20260509222102 61 146 1.0 5.0 0.00 0.20 0.20 83 1007.5
20260509222005 61 146 1.0 5.0 0.00 0.20 0.20 83 1007.5
20260509221901 61 146 1.0 5.0 0.00 0.20 0.20 83 1007.5
20260509221803 61 146 2.0 5.0 0.00 0.20 0.20 83 1007.5
20260509221701 61 146 2.0 5.0 0.00 0.20 0.20 83 1007.5
20260509221603 61 141 0.0 4.0 0.00 0.20 0.20 84 1007.5
20260509221359 60 139 3.0 4.0 0.00 0.20 0.20 84 1007.5
20260509221201 60 123 2.0 4.0 0.00 0.20 0.20 85 1007.5
20260509221102 60 123 1.0 4.0 0.00 0.20 0.20 85 1007.4
20260509221005 60 123 0.0 4.0 0.00 0.20 0.20 86 1007.4
20260509220901 60 123 0.0 4.0 0.00 0.20 0.20 85 1007.4
20260509220801 60 123 2.0 4.0 0.00 0.20 0.20 85 1007.4
20260509220701 60 125 2.0 3.0 0.00 0.20 0.20 85 1007.4
20260509220602 60 125 1.0 4.0 0.00 0.20 0.20 86 1007.4
20260509220505 60 125 2.0 4.0 0.00 0.20 0.20 85 1007.4
20260509220003 60 125 0.0 4.0 0.00 0.20 0.20 85 1007.4
20260509215800 60 125 2.0 4.0 0.00 0.20 0.20 86 1007.5
20260509215659 60 97 3.0 5.0 0.00 0.20 0.20 86 1007.5
20260509215600 60 158 3.0 5.0 0.00 0.20 0.20 87 1007.5
20260509215505 60 158 2.0 5.0 0.00 0.20 0.20 87 1007.5
20260509215259 60 158 0.0 5.0 0.00 0.20 0.20 87 1007.5
20260509215201 60 158 2.0 5.0 0.00 0.20 0.20 87 1007.5
20260509215059 60 160 1.0 3.0 0.00 0.20 0.20 87 1007.5
20260509215005 60 160 0.0 3.0 0.00 0.20 0.20 86 1007.6
20260509214801 60 160 0.0 3.0 0.00 0.20 0.20 87 1007.6
20260509214701 60 160 0.0 3.0 0.00 0.20 0.20 87 1007.6
20260509214600 60 160 0.0 3.0 0.00 0.20 0.20 87 1007.6
20260509214504 60 160 4.0 4.0 0.00 0.20 0.20 87 1007.6
20260509214358 60 159 2.0 2.0 0.00 0.20 0.20 88 1007.6
20260509214300 60 159 0.0 5.0 0.00 0.20 0.20 87 1007.6
20260509214201 59 160 0.0 5.0 0.00 0.20 0.20 87 1007.6
20260509214059 59 160 0.0 5.0 0.00 0.20 0.20 87 1007.7
20260509214004 59 160 2.0 5.0 0.00 0.20 0.20 87 1007.7
20260509213859 59 160 1.0 5.0 0.00 0.20 0.20 87 1007.7
20260509213759 59 160 0.0 5.0 0.00 0.20 0.20 88 1007.7
20260509213700 59 160 0.0 5.0 0.00 0.20 0.20 87 1007.7
20260509213600 59 160 0.0 5.0 0.00 0.20 0.20 89 1007.7
20260509213504 59 160 1.0 5.0 0.00 0.20 0.20 89 1007.7
20260509213401 59 160 2.0 5.0 0.00 0.20 0.20 89 1007.7
20260509213300 59 160 5.0 5.0 0.00 0.20 0.20 89 1007.8
20260509213200 59 159 2.0 4.0 0.00 0.20 0.20 89 1007.8
20260509213101 59 119 1.0 4.0 0.00 0.20 0.20 89 1007.8
20260509213006 59 92 4.0 4.0 0.00 0.20 0.20 89 1007.8
20260509212901 59 100 0.0 2.0 0.00 0.20 0.20 89 1007.9
20260509212801 59 99 1.0 2.0 0.00 0.20 0.20 89 1007.9
20260509212700 59 99 0.0 2.0 0.00 0.20 0.20 89 1007.9
20260509212600 59 100 0.0 4.0 0.00 0.20 0.20 90 1007.9
20260509212505 59 100 2.0 4.0 0.00 0.20 0.20 90 1007.9
20260509212300 59 100 0.0 4.0 0.00 0.20 0.20 91 1007.9
20260509212200 59 100 0.0 4.0 0.00 0.20 0.20 91 1007.8
20260509212101 59 100 1.0 4.0 0.00 0.20 0.20 91 1007.8
20260509212006 59 99 1.0 4.0 0.00 0.20 0.20 91 1007.9
20260509211800 59 99 0.0 4.0 0.00 0.20 0.20 91 1007.9
20260509211700 59 99 1.0 4.0 0.00 0.20 0.20 91 1007.9
20260509211600 59 100 3.0 4.0 0.00 0.20 0.20 91 1007.9
20260509211506 59 101 0.0 4.0 0.00 0.20 0.20 91 1007.9
20260509211359 59 101 2.0 4.0 0.00 0.20 0.20 92 1007.9
20260509211300 59 101 1.0 5.0 0.00 0.20 0.20 92 1008.0
20260509211159 59 97 3.0 5.0 0.00 0.20 0.20 93 1007.9
20260509211100 59 138 3.0 5.0 0.00 0.20 0.20 93 1008.0
20260509211005 59 88 0.0 5.0 0.00 0.20 0.20 93 1008.0
20260509210901 59 88 0.0 5.0 0.00 0.20 0.20 93 1008.0
20260509210801 59 88 0.0 5.0 0.00 0.20 0.20 93 1008.0
20260509210700 59 88 0.0 5.0 0.00 0.20 0.20 93 1008.0
20260509210504 59 81 1.0 5.0 0.00 0.20 0.20 93 1008.0
20260509210359 59 63 3.0 7.0 0.00 0.20 0.20 94 1008.0
20260509210259 59 59 1.0 7.0 0.00 0.20 0.20 94 1008.0
20260509210159 59 65 1.0 7.0 0.00 0.20 0.20 94 1008.1
20260509210059 59 71 1.0 7.0 0.00 0.20 0.20 94 1008.0
20260509210004 59 127 3.0 7.0 0.00 0.20 0.20 94 1008.1
20260509205902 59 144 3.0 7.0 0.00 0.20 0.20 94 1008.0
20260509205801 59 130 1.0 7.0 0.00 0.20 0.20 95 1008.0
20260509205701 59 139 3.0 7.0 0.00 0.20 0.20 95 1008.0
20260509205600 59 148 3.0 7.0 0.00 0.20 0.20 95 1008.0
20260509205401 59 192 0.0 5.0 0.00 0.20 0.20 95 1008.0
20260509205301 59 192 1.0 5.0 0.00 0.20 0.20 95 1008.1
20260509205201 59 69 1.0 5.0 0.00 0.20 0.20 95 1008.1
20260509204902 58 63 2.0 4.0 0.00 0.20 0.20 95 1008.1
20260509204801 58 126 1.0 5.0 0.00 0.20 0.20 95 1008.2
20260509204702 58 126 3.0 5.0 0.00 0.20 0.20 95 1008.2
20260509204601 58 149 2.0 5.0 0.00 0.20 0.20 95 1008.2
20260509204505 58 150 3.0 4.0 0.00 0.20 0.20 95 1008.3
20260509204401 58 80 1.0 3.0 0.00 0.20 0.20 95 1008.2
20260509204302 58 80 1.0 2.0 0.00 0.20 0.20 95 1008.3
20260509204201 58 80 2.0 2.0 0.00 0.20 0.20 95 1008.3
20260509204101 58 80 0.0 2.0 0.00 0.20 0.20 95 1008.3
20260509204005 58 80 1.0 2.0 0.00 0.20 0.20 95 1008.3
20260509203901 58 80 1.0 2.0 0.00 0.20 0.20 95 1008.3
20260509203801 58 80 0.0 2.0 0.00 0.20 0.20 95 1008.3
20260509203601 57 80 1.0 2.0 0.00 0.20 0.20 95 1008.4
20260509203505 57 80 1.0 2.0 0.00 0.20 0.20 95 1008.4
20260509203401 57 80 0.0 2.0 0.00 0.20 0.20 95 1008.4
20260509203302 57 80 0.0 2.0 0.00 0.20 0.20 95 1008.4
20260509203101 57 80 0.0 2.0 0.00 0.20 0.20 95 1008.5
20260509203006 57 80 1.0 2.0 0.00 0.20 0.20 95 1008.5
20260509202902 57 80 1.0 3.0 0.00 0.20 0.20 95 1008.5
20260509202802 57 80 0.0 4.0 0.00 0.20 0.20 95 1008.5
20260509202701 57 80 1.0 4.0 0.00 0.20 0.20 95 1008.5
20260509202600 57 80 1.0 4.0 0.00 0.20 0.20 95 1008.5
20260509202507 57 80 0.0 4.0 0.00 0.20 0.20 95 1008.6
20260509202400 57 80 0.0 4.0 0.00 0.20 0.20 95 1008.5
20260509202100 57 80 0.0 4.0 0.00 0.20 0.20 95 1008.5
20260509202004 57 80 1.0 4.0 0.00 0.20 0.20 95 1008.5
20260509201900 57 80 2.0 4.0 0.00 0.20 0.20 95 1008.4
20260509201800 57 80 2.0 3.0 0.00 0.20 0.20 95 1008.4
20260509201701 57 80 1.0 3.0 0.00 0.20 0.20 95 1008.4
20260509201505 57 80 2.0 2.0 0.00 0.20 0.20 95 1008.4
20260509201400 57 80 1.0 2.0 0.00 0.20 0.20 95 1008.3
20260509201301 57 80 1.0 2.0 0.00 0.20 0.20 95 1008.3
20260509201101 57 80 0.0 2.0 0.00 0.20 0.20 95 1008.3
20260509200901 57 80 0.0 2.0 0.00 0.20 0.20 95 1008.3
20260509200801 57 80 1.0 2.0 0.00 0.20 0.20 95 1008.2
20260509200700 57 80 1.0 2.0 0.00 0.20 0.20 95 1008.2
20260509200601 57 80 1.0 1.0 0.00 0.20 0.20 95 1008.2
20260509200401 57 80 0.0 1.0 0.00 0.20 0.20 95 1008.2
20260509200303 57 80 0.0 2.0 0.00 0.20 0.20 95 1008.2
20260509200201 57 80 0.0 2.0 0.00 0.20 0.20 95 1008.1
20260509200101 57 80 0.0 2.0 0.00 0.20 0.20 95 1008.1
20260509200006 57 80 0.0 2.0 0.00 0.20 0.20 95 1008.1
20260509195901 57 80 0.0 2.0 0.00 0.20 0.20 95 1008.1
20260509195801 57 80 0.0 3.0 0.00 0.20 0.20 95 1008.1
20260509195700 57 80 0.0 3.0 0.00 0.20 0.20 95 1008.1
20260509195603 57 80 0.0 3.0 0.00 0.20 0.20 95 1008.1
20260509195504 57 80 1.0 3.0 0.00 0.20 0.20 95 1008.1
20260509195402 57 80 1.0 3.0 0.00 0.20 0.20 95 1008.2
20260509195201 57 80 1.0 3.0 0.00 0.20 0.20 95 1008.3
20260509194902 57 80 1.0 3.0 0.00 0.20 0.20 95 1008.4
20260509194702 57 80 0.0 3.0 0.00 0.20 0.20 95 1008.5
20260509194600 57 80 1.0 3.0 0.00 0.20 0.20 95 1008.6
20260509194505 57 80 0.0 3.0 0.00 0.20 0.20 95 1008.6
20260509194401 57 80 2.0 3.0 0.00 0.20 0.20 95 1008.6
20260509194300 57 80 1.0 3.0 0.00 0.20 0.20 94 1008.6
20260509194202 57 80 2.0 3.0 0.00 0.20 0.20 94 1008.6
20260509194102 57 80 1.0 3.0 0.00 0.20 0.20 94 1008.5
20260509194005 57 80 3.0 3.0 0.00 0.20 0.20 94 1008.6
20260509193902 57 80 2.0 3.0 0.00 0.20 0.20 94 1008.6
20260509193801 57 80 2.0 3.0 0.00 0.20 0.20 94 1008.6
20260509193702 57 80 2.0 3.0 0.00 0.20 0.20 94 1008.6
20260509193600 57 80 0.0 2.0 0.00 0.20 0.20 94 1008.7
20260509193504 57 80 2.0 2.0 0.00 0.20 0.20 94 1008.6
20260509193402 57 80 0.0 2.0 0.00 0.20 0.20 94 1008.6
20260509193301 57 80 0.0 3.0 0.00 0.20 0.20 94 1008.6
20260509193006 57 80 1.0 5.0 0.00 0.20 0.20 93 1008.7
20260509192902 57 80 0.0 5.0 0.00 0.20 0.20 93 1008.7
20260509192801 57 80 2.0 5.0 0.00 0.20 0.20 93 1008.8
20260509192602 57 80 1.0 5.0 0.00 0.20 0.20 93 1008.9
20260509192401 57 80 3.0 5.0 0.00 0.20 0.20 93 1008.9
20260509192301 57 80 3.0 5.0 0.00 0.20 0.20 93 1008.9
20260509192201 57 76 2.0 5.0 0.00 0.20 0.20 93 1008.9
20260509192104 58 84 3.0 4.0 0.00 0.20 0.20 93 1008.9
20260509192005 58 85 1.0 4.0 0.00 0.20 0.20 93 1008.9
20260509191802 58 85 0.0 4.0 0.00 0.20 0.20 94 1008.9
20260509191701 58 85 0.0 4.0 0.00 0.20 0.20 94 1009.0
20260509191602 58 85 0.0 4.0 0.00 0.20 0.20 94 1009.0
20260509191507 58 85 2.0 4.0 0.00 0.20 0.20 94 1009.0
20260509191401 58 92 1.0 4.0 0.00 0.20 0.20 94 1009.0
20260509191302 58 92 3.0 4.0 0.00 0.20 0.20 94 1009.1
20260509191200 58 103 1.0 3.0 0.00 0.20 0.20 94 1009.1
20260509191004 58 103 2.0 3.0 0.00 0.20 0.20 95 1009.0
20260509190901 58 103 1.0 3.0 0.00 0.20 0.20 95 1009.0
20260509190802 58 142 1.0 3.0 0.00 0.20 0.20 95 1009.0
20260509190701 58 142 0.0 3.0 0.00 0.20 0.20 95 1009.1
20260509190401 57 144 0.0 3.0 0.00 0.20 0.20 94 1009.2
20260509190302 57 144 1.0 3.0 0.00 0.20 0.20 94 1009.2
20260509190202 57 144 0.0 3.0 0.00 0.20 0.20 95 1009.2
20260509190006 58 144 1.0 3.0 0.00 0.20 0.20 95 1009.2
20260509185900 58 144 1.0 2.0 0.00 0.20 0.20 95 1009.3
20260509185700 58 144 1.0 2.0 0.00 0.20 0.20 95 1009.4
20260509185559 58 144 0.0 0.0 0.00 0.20 0.20 95 1009.5
20260509185505 58 144 0.0 0.0 0.00 0.20 0.20 95 1009.5
20260509185401 57 144 0.0 1.0 0.00 0.20 0.20 95 1009.5
20260509185300 57 144 0.0 1.0 0.00 0.20 0.20 95 1009.6
20260509185201 57 144 0.0 1.0 0.00 0.20 0.20 95 1009.5
20260509185100 57 144 0.0 1.0 0.00 0.20 0.20 95 1009.5
20260509185005 57 144 0.0 1.0 0.00 0.20 0.20 95 1009.5
20260509184859 57 144 0.0 1.0 0.00 0.20 0.20 95 1009.5
20260509184802 57 145 0.0 2.0 0.00 0.20 0.20 95 1009.5
20260509184700 57 144 0.0 2.0 0.00 0.20 0.20 95 1009.6
20260509184601 56 144 0.0 2.0 0.00 0.20 0.20 95 1009.6
20260509184501 56 144 0.0 2.0 0.00 0.20 0.20 95 1009.7
20260509184400 56 144 0.0 2.0 0.00 0.20 0.20 95 1009.7
20260509184300 56 144 0.0 2.0 0.00 0.20 0.20 95 1009.6
20260509184159 56 144 0.0 2.0 0.00 0.20 0.20 95 1009.6
20260509184100 56 144 0.0 2.0 0.00 0.20 0.20 95 1009.6
20260509184002 56 144 0.0 2.0 0.00 0.20 0.20 95 1009.6
20260509183659 56 144 0.0 2.0 0.00 0.20 0.20 95 1009.5
20260509183603 56 144 1.0 2.0 0.00 0.20 0.20 95 1009.5
20260509183504 56 144 0.0 2.0 0.00 0.20 0.20 95 1009.5
20260509183359 56 144 0.0 2.0 0.00 0.20 0.20 95 1009.4
20260509183301 56 144 0.0 2.0 0.00 0.20 0.20 95 1009.4
20260509183159 56 144 0.0 2.0 0.00 0.20 0.20 95 1009.4
20260509183101 56 144 0.0 2.0 0.00 0.20 0.20 95 1009.4
20260509183006 56 144 1.0 3.0 0.00 0.20 0.20 95 1009.3
20260509182859 56 144 0.0 3.0 0.00 0.20 0.20 95 1009.3
20260509182800 56 144 0.0 3.0 0.00 0.20 0.20 95 1009.3
20260509182659 56 144 0.0 3.0 0.00 0.20 0.20 95 1009.4
20260509182503 56 144 0.0 3.0 0.00 0.20 0.20 95 1009.3
20260509182359 56 144 2.0 3.0 0.00 0.20 0.20 95 1009.3
20260509182300 56 144 0.0 3.0 0.00 0.20 0.20 95 1009.3
20260509182159 56 144 0.0 3.0 0.00 0.20 0.20 95 1009.3
20260509182100 56 144 0.0 3.0 0.00 0.20 0.20 95 1009.3
20260509182006 56 144 0.0 2.0 0.00 0.20 0.20 95 1009.3
20260509181859 56 144 1.0 2.0 0.00 0.20 0.20 95 1009.3
20260509181800 56 144 0.0 2.0 0.00 0.20 0.20 95 1009.2
20260509181701 56 144 1.0 2.0 0.00 0.20 0.20 95 1009.2
20260509181601 56 144 0.0 2.0 0.00 0.20 0.20 95 1009.2
20260509181505 56 144 0.0 2.0 0.00 0.20 0.20 95 1009.2
20260509181400 56 144 0.0 2.0 0.00 0.20 0.20 95 1009.2
20260509181259 56 144 1.0 2.0 0.00 0.20 0.20 95 1009.2
20260509181159 56 144 2.0 2.0 0.00 0.20 0.20 95 1009.2
20260509181101 56 144 1.0 2.0 0.00 0.20 0.20 95 1009.2
20260509181004 56 144 0.0 2.0 0.00 0.20 0.20 95 1009.2
20260509180901 56 144 0.0 2.0 0.00 0.20 0.20 95 1009.1
20260509180700 56 144 0.0 2.0 0.00 0.20 0.20 95 1009.2
20260509180504 56 144 0.0 1.0 0.01 0.20 0.20 95 1009.3
20260509180400 56 144 0.0 1.0 0.01 0.20 0.20 95 1009.3
20260509180300 56 144 0.0 2.0 0.01 0.20 0.20 95 1009.3
20260509180100 56 144 0.0 2.0 0.01 0.20 0.20 95 1009.4
20260509175902 56 144 0.0 2.0 0.01 0.20 0.20 95 1009.5
20260509175800 55 144 0.0 2.0 0.01 0.20 0.20 95 1009.5
20260509175702 55 144 0.0 2.0 0.01 0.20 0.20 95 1009.5
20260509175601 55 144 0.0 2.0 0.01 0.20 0.20 95 1009.5
20260509175507 55 144 0.0 2.0 0.01 0.20 0.20 95 1009.5
20260509175403 55 144 0.0 3.0 0.01 0.20 0.20 95 1009.6
20260509175201 55 144 0.0 3.0 0.01 0.20 0.20 95 1009.6
20260509175101 55 144 0.0 3.0 0.01 0.20 0.20 95 1009.6
20260509174902 55 144 1.0 3.0 0.01 0.20 0.20 95 1009.7
20260509174801 55 144 0.0 3.0 0.01 0.20 0.20 95 1009.7
20260509174601 55 144 1.0 3.0 0.01 0.20 0.20 95 1009.7
20260509174506 55 144 2.0 3.0 0.01 0.20 0.20 95 1009.7
20260509174401 55 144 2.0 3.0 0.01 0.20 0.20 95 1009.7
20260509174201 55 145 0.0 0.0 0.01 0.20 0.20 95 1009.7
20260509174101 55 145 0.0 0.0 0.01 0.20 0.20 95 1009.8
20260509173900 55 145 0.0 0.0 0.01 0.20 0.20 94 1009.8
20260509173801 55 145 0.0 0.0 0.01 0.20 0.20 94 1009.8
20260509173700 55 145 0.0 0.0 0.01 0.20 0.20 94 1009.8
20260509173505 55 145 0.0 1.0 0.01 0.20 0.20 94 1009.9
20260509173401 55 145 0.0 1.0 0.01 0.20 0.20 94 1009.9
20260509173301 55 145 0.0 1.0 0.01 0.20 0.20 94 1009.9
20260509173201 55 145 0.0 1.0 0.01 0.20 0.20 94 1009.9
20260509173102 55 145 0.0 1.0 0.01 0.20 0.20 94 1010.0
20260509173004 55 145 0.0 2.0 0.01 0.20 0.20 94 1009.9
20260509172801 55 145 0.0 2.0 0.02 0.20 0.20 94 1009.9
20260509172701 55 145 0.0 2.0 0.02 0.20 0.20 94 1010.0
20260509172601 55 145 0.0 2.0 0.02 0.20 0.20 94 1010.0
20260509172505 55 145 0.0 2.0 0.02 0.20 0.20 94 1010.0
20260509172201 55 145 0.0 3.0 0.02 0.20 0.20 94 1010.1
20260509172006 55 145 1.0 3.0 0.02 0.20 0.20 94 1010.1
20260509171903 55 145 0.0 3.0 0.02 0.20 0.20 94 1010.1
20260509171803 55 145 0.0 3.0 0.02 0.20 0.20 94 1010.1
20260509171701 54 145 0.0 3.0 0.02 0.20 0.20 94 1010.2
20260509171559 54 145 0.0 3.0 0.02 0.20 0.20 94 1010.1
20260509171506 54 145 0.0 3.0 0.02 0.20 0.20 94 1010.1
20260509171401 54 145 0.0 3.0 0.02 0.20 0.20 94 1010.2
20260509171302 54 145 2.0 2.0 0.02 0.20 0.20 94 1010.2
20260509171200 54 145 0.0 2.0 0.03 0.20 0.20 94 1010.1
20260509171100 54 145 0.0 2.0 0.03 0.20 0.20 94 1010.1
20260509170900 54 145 0.0 2.0 0.03 0.20 0.20 94 1010.2
20260509170801 54 145 0.0 2.0 0.03 0.20 0.20 94 1010.1
20260509170701 54 145 0.0 2.0 0.03 0.20 0.20 94 1010.2
20260509170601 54 145 2.0 2.0 0.02 0.19 0.19 94 1010.3
20260509170402 54 145 0.0 3.0 0.02 0.19 0.19 94 1010.3
20260509170300 54 145 0.0 3.0 0.03 0.19 0.19 94 1010.2
20260509170201 54 145 1.0 3.0 0.03 0.19 0.19 94 1010.1
20260509170005 54 145 0.0 3.0 0.03 0.19 0.19 94 1010.2
20260509165901 54 145 0.0 3.0 0.03 0.19 0.19 94 1010.2
20260509165800 54 145 0.0 3.0 0.03 0.19 0.19 94 1010.1
20260509165700 54 145 0.0 3.0 0.03 0.19 0.19 94 1010.1
20260509165600 54 145 0.0 3.0 0.03 0.19 0.19 94 1010.1
20260509165505 54 145 1.0 3.0 0.03 0.19 0.19 94 1010.0
20260509165359 54 145 1.0 3.0 0.03 0.19 0.19 94 1010.0
20260509165300 54 145 1.0 2.0 0.04 0.19 0.19 94 1010.0
20260509165201 54 145 0.0 2.0 0.04 0.19 0.19 94 1010.0
20260509165059 54 145 0.0 2.0 0.04 0.19 0.19 93 1010.0
20260509165005 54 145 2.0 2.0 0.04 0.19 0.19 93 1010.1
20260509164859 54 145 1.0 2.0 0.04 0.19 0.19 93 1010.1
20260509164800 54 145 0.0 2.0 0.04 0.19 0.19 94 1010.1
20260509164701 54 145 0.0 2.0 0.05 0.19 0.19 94 1010.0
20260509164600 54 145 0.0 3.0 0.05 0.19 0.19 94 1010.0
20260509164505 54 145 2.0 3.0 0.05 0.19 0.19 94 1010.0
20260509164359 54 145 0.0 3.0 0.05 0.19 0.19 94 1009.9
20260509164259 54 145 1.0 3.0 0.05 0.19 0.19 94 1009.9
20260509164200 54 145 0.0 3.0 0.05 0.19 0.19 94 1009.9
20260509164100 54 145 1.0 3.0 0.06 0.19 0.19 94 1009.8
20260509164005 54 145 1.0 3.0 0.06 0.19 0.19 94 1009.8
20260509163900 54 145 0.0 3.0 0.07 0.19 0.19 94 1009.8
20260509163658 54 145 1.0 3.0 0.07 0.19 0.19 94 1009.7
20260509163601 53 145 1.0 3.0 0.07 0.19 0.19 94 1009.7
20260509163505 53 145 1.0 3.0 0.07 0.19 0.19 94 1009.6
20260509163401 53 145 2.0 3.0 0.08 0.19 0.19 94 1009.6
20260509163300 53 145 0.0 3.0 0.08 0.19 0.19 94 1009.6
20260509163159 53 145 1.0 3.0 0.09 0.19 0.19 94 1009.6
20260509163100 53 145 1.0 3.0 0.09 0.19 0.19 94 1009.6
20260509163004 53 145 2.0 3.0 0.09 0.19 0.19 94 1009.5
20260509162859 53 145 2.0 3.0 0.08 0.18 0.18 94 1009.4
20260509162700 53 145 0.0 3.0 0.09 0.18 0.18 94 1009.3
20260509162601 53 145 1.0 3.0 0.09 0.18 0.18 94 1009.3
20260509162504 53 145 2.0 3.0 0.10 0.18 0.18 94 1009.3
20260509162301 53 146 1.0 3.0 0.11 0.18 0.18 94 1009.3
20260509162200 53 146 1.0 4.0 0.11 0.18 0.18 95 1009.4
20260509162101 53 146 0.0 5.0 0.12 0.18 0.18 95 1009.4
20260509162004 53 146 2.0 5.0 0.12 0.18 0.18 95 1009.4
20260509161900 53 146 1.0 5.0 0.12 0.18 0.18 95 1009.4
20260509161801 53 146 2.0 5.0 0.12 0.18 0.18 95 1009.4
20260509161700 53 146 1.0 5.0 0.13 0.18 0.18 95 1009.3
20260509161505 53 65 1.0 5.0 0.14 0.18 0.18 95 1009.2
20260509161400 53 65 1.0 5.0 0.14 0.18 0.18 95 1009.2
20260509161200 53 59 4.0 5.0 0.13 0.17 0.17 95 1009.4
20260509161100 53 142 1.0 5.0 0.13 0.17 0.17 94 1009.4
20260509161002 53 103 1.0 5.0 0.13 0.17 0.17 94 1009.4
20260509160859 53 70 4.0 5.0 0.13 0.17 0.17 94 1009.5
20260509160759 53 83 2.0 5.0 0.14 0.17 0.17 94 1009.5
20260509160659 53 97 2.0 5.0 0.14 0.17 0.17 94 1009.5
20260509160600 53 100 2.0 5.0 0.14 0.17 0.17 95 1009.5
20260509160503 53 58 4.0 5.0 0.14 0.17 0.17 95 1009.6
20260509160401 53 71 3.0 5.0 0.13 0.16 0.16 95 1009.7
20260509160201 53 93 1.0 4.0 0.13 0.16 0.16 95 1009.7
20260509160007 53 93 1.0 4.0 0.14 0.16 0.16 95 1009.7
20260509155859 53 94 4.0 4.0 0.14 0.16 0.16 95 1009.7
20260509155759 53 94 1.0 4.0 0.14 0.16 0.16 95 1009.9
20260509155601 53 94 2.0 4.0 0.14 0.16 0.16 95 1009.9
20260509155501 53 94 1.0 4.0 0.14 0.16 0.16 95 1010.0
20260509155400 53 94 3.0 4.0 0.14 0.16 0.16 95 1010.1
20260509155300 53 94 1.0 4.0 0.13 0.15 0.15 95 1010.0
20260509155159 53 94 3.0 4.0 0.13 0.15 0.15 95 1010.1
20260509155100 53 95 0.0 2.0 0.13 0.15 0.15 95 1010.2
20260509155004 53 95 0.0 2.0 0.13 0.15 0.15 95 1010.2
20260509154901 53 94 0.0 2.0 0.13 0.15 0.15 95 1010.3
20260509154506 53 95 0.0 0.0 0.12 0.14 0.14 95 1010.3
20260509154259 53 95 0.0 0.0 0.12 0.14 0.14 95 1010.5
20260509154100 53 95 0.0 0.0 0.11 0.13 0.13 95 1010.6
20260509154005 53 95 0.0 0.0 0.11 0.13 0.13 95 1010.6
20260509153901 53 95 0.0 0.0 0.11 0.12 0.12 95 1010.7
20260509153801 53 95 0.0 1.0 0.11 0.12 0.12 95 1010.7
20260509153700 53 95 0.0 1.0 0.11 0.12 0.12 95 1010.7
20260509153559 53 95 0.0 1.0 0.11 0.12 0.12 95 1010.7
20260509153505 53 95 0.0 2.0 0.11 0.12 0.12 95 1010.6
20260509153359 53 95 0.0 2.0 0.10 0.11 0.11 95 1010.7
20260509153300 53 95 0.0 2.0 0.10 0.11 0.11 95 1010.8
20260509153200 53 95 0.0 3.0 0.09 0.10 0.10 95 1010.7
20260509153101 53 94 0.0 3.0 0.09 0.10 0.10 95 1010.9
20260509152900 53 95 0.0 3.0 0.10 0.10 0.10 95 1010.9
20260509152801 53 95 0.0 3.0 0.09 0.09 0.09 95 1010.9
20260509152701 53 95 1.0 3.0 0.09 0.09 0.09 94 1010.9
20260509152600 53 95 0.0 3.0 0.09 0.09 0.09 94 1010.9
20260509152505 53 95 0.0 3.0 0.08 0.08 0.08 94 1011.0
20260509152401 53 95 0.0 3.0 0.08 0.08 0.08 95 1011.0
20260509152305 53 95 0.0 3.0 0.07 0.07 0.07 95 1011.0
20260509152100 53 95 0.0 0.0 0.06 0.06 0.06 94 1011.0
20260509152005 53 95 0.0 0.0 0.06 0.06 0.06 94 1011.0
20260509151859 54 95 0.0 0.0 0.06 0.06 0.06 94 1011.0
20260509151802 54 95 0.0 0.0 0.06 0.06 0.06 94 1011.0
20260509151701 54 95 0.0 2.0 0.05 0.05 0.05 94 1011.0
20260509151601 54 95 0.0 2.0 0.05 0.05 0.05 95 1011.0
20260509151504 54 95 0.0 2.0 0.04 0.04 0.04 95 1011.0
20260509151400 54 94 0.0 2.0 0.04 0.04 0.04 95 1011.0
20260509151200 54 94 0.0 2.0 0.04 0.04 0.04 94 1010.9
20260509151003 54 95 0.0 2.0 0.04 0.04 0.04 94 1010.8
20260509150902 54 95 0.0 2.0 0.04 0.04 0.04 94 1010.8
20260509150801 54 95 0.0 2.0 0.03 0.03 0.03 94 1010.7
20260509150700 54 95 1.0 1.0 0.03 0.03 0.03 94 1010.8
20260509150359 54 95 0.0 0.0 0.03 0.03 0.03 94 1010.6
20260509150300 54 95 0.0 0.0 0.03 0.03 0.03 94 1010.6
20260509150100 54 95 0.0 0.0 0.03 0.03 0.03 94 1010.5
20260509150006 54 94 0.0 0.0 0.02 0.02 0.02 93 1010.5
20260509145900 54 94 0.0 0.0 0.02 0.02 0.02 93 1010.5
20260509145800 54 95 0.0 0.0 0.02 0.02 0.02 93 1010.5
20260509145700 54 95 0.0 0.0 0.02 0.02 0.02 93 1010.5
20260509145600 54 94 0.0 1.0 0.02 0.02 0.02 93 1010.5
20260509145505 54 95 0.0 1.0 0.02 0.02 0.02 93 1010.5
20260509145400 54 95 0.0 1.0 0.02 0.02 0.02 93 1010.5
20260509145300 54 95 0.0 1.0 0.02 0.02 0.02 93 1010.5
20260509145159 54 94 0.0 1.0 0.02 0.02 0.02 93 1010.6
20260509145100 54 95 0.0 1.0 0.02 0.02 0.02 93 1010.5
20260509145006 54 95 0.0 1.0 0.02 0.02 0.02 93 1010.5
20260509144800 54 95 0.0 2.0 0.02 0.02 0.02 92 1010.5
20260509144659 54 95 0.0 2.0 0.02 0.02 0.02 92 1010.4
20260509144559 54 94 0.0 2.0 0.02 0.02 0.02 92 1010.4
20260509144505 54 95 0.0 2.0 0.02 0.02 0.02 92 1010.4
20260509144400 54 94 0.0 2.0 0.02 0.02 0.02 92 1010.4
20260509144300 54 94 0.0 2.0 0.02 0.02 0.02 92 1010.4
20260509144200 54 95 0.0 2.0 0.02 0.02 0.02 92 1010.4
20260509144100 54 95 0.0 2.0 0.02 0.02 0.02 91 1010.4
20260509143859 54 95 2.0 2.0 0.01 0.01 0.01 91 1010.4
20260509143800 54 94 0.0 2.0 0.01 0.01 0.01 91 1010.4
20260509143700 54 95 0.0 2.0 0.01 0.01 0.01 91 1010.5
20260509143600 54 95 0.0 2.0 0.01 0.01 0.01 91 1010.4
20260509143401 54 95 0.0 2.0 0.01 0.01 0.01 90 1010.4
20260509143300 54 95 0.0 2.0 0.01 0.01 0.01 90 1010.4
20260509143201 54 95 0.0 2.0 0.01 0.01 0.01 90 1010.4
20260509143100 54 95 0.0 2.0 0.01 0.01 0.01 90 1010.4
20260509143006 54 95 0.0 2.0 0.01 0.01 0.01 90 1010.4
20260509142900 54 95 0.0 2.0 0.00 0.00 0.00 90 1010.4
20260509142759 54 95 0.0 2.0 0.00 0.00 0.00 90 1010.3
20260509142701 54 95 0.0 2.0 0.00 0.00 0.00 90 1010.3
20260509142559 54 95 0.0 2.0 0.00 0.00 0.00 89 1010.3
20260509142500 54 95 0.0 2.0 0.00 0.00 0.00 89 1010.3
20260509142402 54 95 0.0 2.0 0.00 0.00 0.00 89 1010.3
20260509142300 54 94 0.0 2.0 0.00 0.00 0.00 89 1010.3
20260509142200 54 95 0.0 2.0 0.00 0.00 0.00 89 1010.4
20260509142100 54 95 0.0 2.0 0.00 0.00 0.00 89 1010.4
20260509141901 54 95 0.0 2.0 0.00 0.00 0.00 89 1010.3
20260509141759 54 95 0.0 2.0 0.00 0.00 0.00 89 1010.3
20260509141700 54 95 0.0 2.0 0.00 0.00 0.00 89 1010.3
20260509141600 54 95 1.0 2.0 0.00 0.00 0.00 89 1010.3
20260509141505 54 95 1.0 2.0 0.00 0.00 0.00 89 1010.3
20260509141359 54 95 0.0 2.0 0.00 0.00 0.00 88 1010.2
20260509141300 54 95 0.0 2.0 0.00 0.00 0.00 88 1010.1
20260509141201 54 95 0.0 2.0 0.00 0.00 0.00 89 1010.1
20260509141100 54 94 0.0 2.0 0.00 0.00 0.00 89 1010.1
20260509140801 54 95 1.0 3.0 0.00 0.00 0.00 89 1010.2
20260509140700 54 94 0.0 3.0 0.00 0.00 0.00 89 1010.1
20260509140600 54 95 0.0 3.0 0.00 0.00 0.00 89 1010.1
20260509140501 54 94 0.0 3.0 0.00 0.00 0.00 89 1010.2
20260509140400 54 94 0.0 3.0 0.00 0.00 0.00 89 1010.1
20260509140259 54 95 0.0 3.0 0.00 0.00 0.00 89 1010.1
20260509140159 54 94 0.0 3.0 0.00 0.00 0.00 89 1010.2
20260509140059 54 94 3.0 3.0 0.00 0.00 0.00 89 1010.1
20260509140001 54 95 1.0 3.0 0.00 0.00 0.00 89 1010.2
20260509135859 54 95 0.0 3.0 0.00 0.00 0.00 89 1010.2
20260509135800 54 95 0.0 3.0 0.00 0.00 0.00 89 1010.1
20260509135700 54 95 0.0 3.0 0.00 0.00 0.00 89 1010.1
20260509135600 54 95 2.0 2.0 0.00 0.00 0.00 89 1010.1
20260509135401 54 95 1.0 2.0 0.00 0.00 0.00 89 1010.1
20260509135259 54 94 0.0 2.0 0.00 0.00 0.00 89 1010.1
20260509135201 54 95 0.0 3.0 0.00 0.00 0.00 89 1010.1
20260509135059 54 94 0.0 3.0 0.00 0.00 0.00 89 1010.1
20260509135005 54 94 0.0 3.0 0.00 0.00 0.00 90 1010.0
20260509134801 54 94 0.0 4.0 0.00 0.00 0.00 90 1010.0
20260509134659 54 94 0.0 4.0 0.00 0.00 0.00 90 1010.1
20260509134559 54 94 0.0 4.0 0.00 0.00 0.00 90 1010.1
20260509134505 54 94 0.0 4.0 0.00 0.00 0.00 90 1010.1
20260509134400 54 94 1.0 4.0 0.00 0.00 0.00 90 1010.1
20260509134300 54 94 1.0 4.0 0.00 0.00 0.00 91 1010.2
20260509134159 54 173 1.0 4.0 0.00 0.00 0.00 91 1010.1
20260509134100 54 186 2.0 4.0 0.00 0.00 0.00 91 1010.1
20260509134004 54 187 1.0 4.0 0.00 0.00 0.00 91 1010.1
20260509133901 54 187 2.0 2.0 0.00 0.00 0.00 91 1010.1
20260509133801 54 187 0.0 2.0 0.00 0.00 0.00 91 1010.0
20260509133601 53 187 0.0 2.0 0.00 0.00 0.00 92 1010.0
20260509133505 53 187 0.0 2.0 0.00 0.00 0.00 92 1010.1
20260509133259 53 187 0.0 2.0 0.00 0.00 0.00 92 1010.0
20260509133200 53 187 0.0 2.0 0.00 0.00 0.00 92 1010.1
20260509133100 53 187 1.0 2.0 0.00 0.00 0.00 93 1010.0
20260509133002 53 187 1.0 4.0 0.00 0.00 0.00 93 1010.0
20260509132859 53 187 1.0 4.0 0.00 0.00 0.00 93 1010.0
20260509132801 53 187 1.0 4.0 0.00 0.00 0.00 93 1010.0
20260509132559 53 187 1.0 4.0 0.00 0.00 0.00 93 1010.0
20260509132505 53 187 0.0 4.0 0.00 0.00 0.00 93 1009.9
20260509132400 52 187 0.0 4.0 0.00 0.00 0.00 93 1009.9
20260509132300 52 203 2.0 4.0 0.00 0.00 0.00 94 1009.9
20260509132200 52 217 1.0 4.0 0.00 0.00 0.00 94 1009.9
20260509132059 52 220 1.0 4.0 0.00 0.00 0.00 94 1009.9
20260509132004 52 103 0.0 2.0 0.00 0.00 0.00 94 1010.0
20260509131859 52 103 0.0 2.0 0.00 0.00 0.00 94 1010.0
20260509131701 52 103 0.0 2.0 0.00 0.00 0.00 94 1009.9
20260509131559 52 103 0.0 2.0 0.00 0.00 0.00 94 1009.9
20260509131505 52 103 0.0 2.0 0.00 0.00 0.00 94 1009.9
20260509131400 52 103 0.0 2.0 0.00 0.00 0.00 94 1009.8
20260509131300 52 103 0.0 2.0 0.00 0.00 0.00 94 1009.8
20260509131159 52 103 1.0 2.0 0.00 0.00 0.00 94 1009.7
20260509131059 52 103 1.0 2.0 0.00 0.00 0.00 93 1009.6
20260509130900 52 103 2.0 2.0 0.00 0.00 0.00 94 1009.6
20260509130759 52 103 1.0 2.0 0.00 0.00 0.00 94 1009.6
20260509130659 52 103 1.0 2.0 0.00 0.00 0.00 93 1009.5
20260509130504 52 103 1.0 2.0 0.00 0.00 0.00 93 1009.3
20260509130359 53 103 0.0 2.0 0.00 0.00 0.00 93 1009.3
20260509130301 53 103 0.0 2.0 0.00 0.00 0.00 93 1009.2
20260509130159 53 103 0.0 2.0 0.00 0.00 0.00 93 1009.2
20260509130100 53 103 0.0 2.0 0.00 0.00 0.00 93 1009.3
20260509130000 53 103 0.0 2.0 0.00 0.00 0.00 93 1009.3
20260509125901 53 103 0.0 2.0 0.00 0.00 0.00 93 1009.2
20260509125759 53 103 1.0 2.0 0.00 0.00 0.00 93 1009.2
20260509125701 53 103 1.0 2.0 0.00 0.00 0.00 93 1009.3
20260509125600 53 103 0.0 2.0 0.00 0.00 0.00 93 1009.2
20260509125506 53 103 0.0 3.0 0.00 0.00 0.00 93 1009.3
20260509125259 53 103 1.0 4.0 0.00 0.00 0.00 92 1009.3
20260509125100 53 103 0.0 4.0 0.00 0.00 0.00 92 1009.3
20260509125000 53 103 0.0 4.0 0.00 0.00 0.00 92 1009.3
20260509124901 53 103 1.0 4.0 0.00 0.00 0.00 92 1009.3
20260509124758 53 103 0.0 4.0 0.00 0.00 0.00 92 1009.3
20260509124505 53 101 1.0 4.0 0.00 0.00 0.00 91 1009.4
20260509124400 53 101 3.0 4.0 0.00 0.00 0.00 91 1009.5
20260509124259 53 103 2.0 3.0 0.00 0.00 0.00 91 1009.5
20260509124200 53 103 2.0 3.0 0.00 0.00 0.00 91 1009.6
20260509124100 53 103 1.0 1.0 0.00 0.00 0.00 91 1009.7
20260509124004 53 103 0.0 1.0 0.00 0.00 0.00 91 1009.7
20260509123801 53 103 0.0 1.0 0.00 0.00 0.00 90 1009.7
20260509123702 53 103 0.0 1.0 0.00 0.00 0.00 90 1009.8
20260509123600 53 103 0.0 0.0 0.00 0.00 0.00 90 1009.8
20260509123505 53 103 0.0 0.0 0.00 0.00 0.00 90 1009.9
20260509123400 53 103 0.0 0.0 0.00 0.00 0.00 90 1009.9
20260509123300 53 103 0.0 0.0 0.00 0.00 0.00 90 1010.0
20260509123200 53 103 0.0 0.0 0.00 0.00 0.00 90 1010.0
20260509123100 53 103 0.0 0.0 0.00 0.00 0.00 89 1010.0
20260509123003 53 103 0.0 0.0 0.00 0.00 0.00 89 1010.0
20260509122900 53 103 0.0 0.0 0.00 0.00 0.00 89 1010.0
20260509122759 53 103 0.0 0.0 0.00 0.00 0.00 89 1010.0
20260509122700 53 103 0.0 0.0 0.00 0.00 0.00 90 1010.0
20260509122600 53 103 0.0 0.0 0.00 0.00 0.00 90 1010.0
20260509122504 53 103 0.0 0.0 0.00 0.00 0.00 90 1010.0
20260509122401 53 103 0.0 0.0 0.00 0.00 0.00 90 1010.1
20260509122300 53 103 0.0 0.0 0.00 0.00 0.00 89 1010.1
20260509122200 53 103 0.0 0.0 0.00 0.00 0.00 89 1010.1
20260509122100 53 103 0.0 0.0 0.00 0.00 0.00 89 1010.1
20260509122005 53 103 0.0 0.0 0.00 0.00 0.00 89 1010.1
20260509121759 53 103 0.0 0.0 0.00 0.00 0.00 90 1010.1
20260509121700 53 103 0.0 0.0 0.00 0.00 0.00 90 1010.1
20260509121600 53 103 0.0 0.0 0.00 0.00 0.00 90 1010.1
20260509121504 53 103 0.0 0.0 0.00 0.00 0.00 89 1010.1
20260509121400 52 103 0.0 0.0 0.00 0.00 0.00 89 1010.1
20260509121301 52 103 0.0 0.0 0.00 0.00 0.00 89 1010.1
20260509121200 52 103 0.0 0.0 0.00 0.00 0.00 90 1010.1
20260509121101 52 103 0.0 1.0 0.00 0.00 0.00 90 1010.0
20260509121005 52 103 0.0 1.0 0.00 0.00 0.00 89 1010.0
20260509120901 52 103 0.0 1.0 0.00 0.00 0.00 89 1010.0
20260509120759 52 103 0.0 1.0 0.00 0.00 0.00 89 1009.9
20260509120700 52 103 0.0 1.0 0.00 0.00 0.00 88 1009.9
20260509120600 52 103 0.0 2.0 0.00 0.00 0.00 88 1009.9
20260509120501 52 103 0.0 3.0 0.00 0.00 0.00 88 1009.8
20260509120359 52 103 0.0 3.0 0.00 0.00 0.00 88 1009.8
20260509120259 52 103 0.0 3.0 0.00 0.00 0.00 88 1009.8
20260509120159 52 103 0.0 3.0 0.00 0.00 0.00 89 1009.8
20260509120101 52 103 0.0 3.0 0.00 0.00 0.00 89 1009.7
20260509115700 52 103 2.0 3.0 0.00 0.00 0.00 89 1009.7
20260509115504 52 103 1.0 3.0 0.00 0.00 0.00 89 1009.6
20260509115359 52 103 0.0 3.0 0.00 0.00 0.00 89 1009.6
20260509115300 52 103 0.0 3.0 0.00 0.00 0.00 89 1009.6
20260509115159 52 103 1.0 3.0 0.00 0.00 0.00 90 1009.5
20260509115101 52 103 1.0 3.0 0.00 0.00 0.00 90 1009.5
20260509114859 52 103 0.0 2.0 0.00 0.00 0.00 89 1009.6
20260509114801 52 103 0.0 2.0 0.00 0.00 0.00 89 1009.6
20260509114659 52 103 1.0 2.0 0.00 0.00 0.00 89 1009.6
20260509114559 52 103 1.0 2.0 0.00 0.00 0.00 89 1009.5
20260509114400 52 103 0.0 2.0 0.00 0.00 0.00 89 1009.6
20260509114100 52 103 0.0 1.0 0.00 0.00 0.00 89 1009.6
20260509114001 52 103 0.0 1.0 0.00 0.00 0.00 89 1009.7
20260509113900 52 103 0.0 1.0 0.00 0.00 0.00 89 1009.7
20260509113759 52 103 0.0 2.0 0.00 0.00 0.00 89 1009.7
20260509113700 52 103 0.0 2.0 0.00 0.00 0.00 89 1009.7
20260509113601 52 103 0.0 2.0 0.00 0.00 0.00 88 1009.7
20260509113504 52 103 0.0 2.0 0.00 0.00 0.00 88 1009.7
20260509113300 52 103 0.0 2.0 0.00 0.00 0.00 88 1009.7
20260509113159 52 103 0.0 2.0 0.00 0.00 0.00 88 1009.7
20260509113059 52 103 1.0 2.0 0.00 0.00 0.00 88 1009.7
20260509113005 52 103 0.0 2.0 0.00 0.00 0.00 88 1009.5
20260509112900 52 103 1.0 2.0 0.00 0.00 0.00 88 1009.5
20260509112800 52 103 0.0 2.0 0.00 0.00 0.00 88 1009.7
20260509112658 52 103 0.0 2.0 0.00 0.00 0.00 88 1009.6
20260509112600 52 103 1.0 2.0 0.00 0.00 0.00 88 1009.5
20260509112505 52 103 0.0 2.0 0.00 0.00 0.00 88 1009.5
20260509112400 52 103 0.0 2.0 0.00 0.00 0.00 87 1009.5
20260509112300 52 103 1.0 4.0 0.00 0.00 0.00 87 1009.5
20260509112201 52 103 0.0 4.0 0.00 0.00 0.00 87 1009.6
20260509112100 52 103 0.0 4.0 0.00 0.00 0.00 87 1009.6
20260509112005 52 103 0.0 4.0 0.00 0.00 0.00 87 1009.5
20260509111859 52 103 0.0 4.0 0.00 0.00 0.00 87 1009.6
20260509111801 52 103 0.0 4.0 0.00 0.00 0.00 87 1009.6
20260509111659 52 103 0.0 4.0 0.00 0.00 0.00 87 1009.5
20260509111601 52 103 1.0 4.0 0.00 0.00 0.00 87 1009.5
20260509111504 52 103 0.0 4.0 0.00 0.00 0.00 87 1009.5
20260509111359 52 103 1.0 4.0 0.00 0.00 0.00 87 1009.5
20260509111300 52 103 2.0 4.0 0.00 0.00 0.00 87 1009.5
20260509111200 52 103 0.0 4.0 0.00 0.00 0.00 87 1009.5
20260509111004 52 103 0.0 4.0 0.00 0.00 0.00 87 1009.3
20260509110900 52 103 2.0 4.0 0.00 0.00 0.00 87 1009.3
20260509110759 52 102 2.0 4.0 0.00 0.00 0.00 87 1009.3
20260509110700 52 103 2.0 4.0 0.00 0.00 0.00 86 1009.4
20260509110600 52 104 0.0 4.0 0.00 0.00 0.00 86 1009.5
20260509110505 52 104 0.0 4.0 0.00 0.00 0.00 86 1009.5
20260509110159 51 104 3.0 4.0 0.00 0.00 0.00 87 1009.4
20260509110100 51 103 1.0 4.0 0.00 0.00 0.00 87 1009.2
20260509110006 51 103 3.0 4.0 0.00 0.00 0.00 87 1009.3
20260509105759 51 146 1.0 4.0 0.00 0.00 0.00 87 1009.2
20260509105700 51 146 0.0 4.0 0.00 0.00 0.00 87 1009.1
20260509105600 51 111 1.0 4.0 0.00 0.00 0.00 87 1009.1
20260509105504 51 111 1.0 4.0 0.00 0.00 0.00 87 1009.2
20260509105400 51 80 1.0 3.0 0.00 0.00 0.00 87 1009.2
20260509105101 51 77 0.0 0.0 0.00 0.00 0.00 88 1009.1
20260509105006 51 77 0.0 0.0 0.00 0.00 0.00 88 1009.1
20260509104759 51 77 0.0 0.0 0.00 0.00 0.00 88 1009.2
20260509104659 51 77 0.0 0.0 0.00 0.00 0.00 88 1009.2
20260509104500 50 78 0.0 0.0 0.00 0.00 0.00 88 1009.2
20260509104359 50 77 0.0 0.0 0.00 0.00 0.00 88 1009.1
20260509104300 50 76 0.0 0.0 0.00 0.00 0.00 88 1009.2
20260509104200 50 76 0.0 0.0 0.00 0.00 0.00 88 1009.2
20260509104004 50 76 0.0 0.0 0.00 0.00 0.00 89 1009.3
20260509103900 50 76 0.0 0.0 0.00 0.00 0.00 89 1009.2
20260509103759 50 76 0.0 0.0 0.00 0.00 0.00 89 1009.2
20260509103559 50 76 0.0 0.0 0.00 0.00 0.00 89 1009.3
20260509103505 50 76 0.0 0.0 0.00 0.00 0.00 89 1009.1
20260509103400 50 76 0.0 0.0 0.00 0.00 0.00 89 1009.1
20260509103259 50 76 0.0 0.0 0.00 0.00 0.00 89 1009.1
20260509103200 50 76 0.0 0.0 0.00 0.00 0.00 89 1009.2
20260509103101 50 76 0.0 0.0 0.00 0.00 0.00 90 1009.3
20260509103004 50 76 0.0 0.0 0.00 0.00 0.00 90 1009.3
20260509102859 50 76 0.0 0.0 0.00 0.00 0.00 90 1009.3
20260509102803 50 76 0.0 0.0 0.00 0.00 0.00 90 1009.3
20260509102700 50 76 0.0 0.0 0.00 0.00 0.00 90 1009.2
20260509102559 50 76 0.0 0.0 0.00 0.00 0.00 90 1009.2
20260509102504 51 76 0.0 0.0 0.00 0.00 0.00 90 1009.2
20260509102401 51 76 0.0 0.0 0.00 0.00 0.00 90 1009.2
20260509102259 51 76 0.0 0.0 0.00 0.00 0.00 90 1009.2
20260509102200 51 76 0.0 0.0 0.00 0.00 0.00 89 1009.2
20260509102059 50 76 0.0 0.0 0.00 0.00 0.00 89 1009.3
20260509101900 50 76 0.0 0.0 0.00 0.00 0.00 89 1009.3
20260509101800 50 76 0.0 0.0 0.00 0.00 0.00 89 1009.3
20260509101700 50 76 0.0 0.0 0.00 0.00 0.00 89 1009.3
20260509101600 50 76 0.0 0.0 0.00 0.00 0.00 89 1009.2
20260509101504 50 76 0.0 0.0 0.00 0.00 0.00 89 1009.2
20260509101400 50 76 0.0 0.0 0.00 0.00 0.00 88 1009.2
20260509101300 50 76 0.0 0.0 0.00 0.00 0.00 88 1009.2
20260509101200 50 76 0.0 0.0 0.00 0.00 0.00 88 1009.2
20260509101101 50 76 0.0 0.0 0.00 0.00 0.00 88 1009.2
20260509101004 50 76 0.0 0.0 0.00 0.00 0.00 88 1009.3
20260509100859 50 76 0.0 0.0 0.00 0.00 0.00 88 1009.3
20260509100801 50 76 0.0 0.0 0.00 0.00 0.00 89 1009.2
20260509100659 50 76 0.0 0.0 0.00 0.00 0.00 89 1009.2
20260509100600 50 76 0.0 0.0 0.00 0.00 0.00 89 1009.3
20260509100359 50 76 0.0 1.0 0.00 0.00 0.00 89 1009.2
20260509100259 50 76 0.0 1.0 0.00 0.00 0.00 89 1009.2
20260509100200 50 76 0.0 1.0 0.00 0.00 0.00 89 1009.2
20260509100100 50 76 0.0 1.0 0.00 0.00 0.00 90 1009.2
20260509100006 50 76 0.0 1.0 0.00 0.00 0.00 89 1009.1
20260509095900 50 76 0.0 1.0 0.00 0.00 0.00 90 1009.2
20260509095759 50 76 0.0 2.0 0.00 0.00 0.00 90 1009.1
20260509095659 50 76 0.0 2.0 0.00 0.00 0.00 90 1009.1
20260509095305 50 76 0.0 2.0 0.00 0.00 0.00 90 1009.2
20260509095159 50 76 0.0 2.0 0.00 0.00 0.00 90 1009.0
20260509095059 50 76 0.0 2.0 0.00 0.00 0.00 90 1009.0
20260509095001 50 76 0.0 2.0 0.00 0.00 0.00 90 1009.0
20260509094900 50 76 0.0 2.0 0.00 0.00 0.00 90 1009.0
20260509094759 50 76 0.0 1.0 0.00 0.00 0.00 90 1009.0
20260509094559 50 76 0.0 1.0 0.00 0.00 0.00 90 1009.0
20260509094506 50 76 0.0 1.0 0.00 0.00 0.00 90 1009.0
20260509094401 50 76 0.0 1.0 0.00 0.00 0.00 90 1009.0
20260509094301 50 76 0.0 2.0 0.00 0.00 0.00 90 1009.0
20260509094159 49 76 0.0 2.0 0.00 0.00 0.00 90 1009.0
20260509094101 49 76 0.0 2.0 0.00 0.00 0.00 90 1009.0
20260509094005 49 76 0.0 2.0 0.00 0.00 0.00 90 1009.1
20260509093901 49 76 0.0 2.0 0.00 0.00 0.00 90 1009.1
20260509093700 49 76 1.0 2.0 0.00 0.00 0.00 91 1009.2
20260509093505 49 76 1.0 2.0 0.00 0.00 0.00 91 1009.3
20260509093400 49 76 0.0 2.0 0.00 0.00 0.00 90 1009.3
20260509093258 49 76 1.0 1.0 0.00 0.00 0.00 90 1009.3
20260509093159 49 76 0.0 1.0 0.00 0.00 0.00 90 1009.3
20260509093101 49 76 0.0 2.0 0.00 0.00 0.00 91 1009.4
20260509093006 49 76 0.0 2.0 0.00 0.00 0.00 91 1009.4
20260509092859 49 76 0.0 2.0 0.00 0.00 0.00 91 1009.4
20260509092759 49 76 0.0 2.0 0.00 0.00 0.00 91 1009.4
20260509092701 49 76 1.0 2.0 0.00 0.00 0.00 91 1009.4
20260509092505 49 76 0.0 2.0 0.00 0.00 0.00 91 1009.4
20260509092400 49 76 0.0 2.0 0.00 0.00 0.00 91 1009.3
20260509092259 49 76 0.0 2.0 0.00 0.00 0.00 91 1009.4
20260509092200 49 76 1.0 2.0 0.00 0.00 0.00 92 1009.4
20260509092059 49 76 0.0 2.0 0.00 0.00 0.00 92 1009.4
20260509092005 49 76 0.0 0.0 0.00 0.00 0.00 92 1009.4
20260509091859 49 76 0.0 0.0 0.00 0.00 0.00 92 1009.4
20260509091801 49 76 0.0 1.0 0.00 0.00 0.00 92 1009.4
20260509091700 49 76 0.0 2.0 0.00 0.00 0.00 92 1009.3
20260509091559 49 76 0.0 2.0 0.00 0.00 0.00 92 1009.3
20260509091505 49 76 0.0 2.0 0.00 0.00 0.00 92 1009.3
20260509091400 49 76 0.0 2.0 0.00 0.00 0.00 92 1009.3
20260509091300 49 76 0.0 2.0 0.00 0.00 0.00 92 1009.2
20260509091005 49 76 0.0 2.0 0.00 0.00 0.00 92 1009.1
20260509090800 49 76 0.0 2.0 0.00 0.00 0.00 92 1009.1
20260509090701 49 53 0.0 2.0 0.00 0.00 0.00 92 1009.1
20260509090505 49 53 0.0 2.0 0.00 0.00 0.00 93 1009.1
20260509090401 49 53 0.0 2.0 0.00 0.00 0.00 93 1009.1
20260509090200 49 53 0.0 2.0 0.00 0.00 0.00 93 1009.2
20260509090100 49 53 0.0 2.0 0.00 0.00 0.00 93 1009.2
20260509090004 49 53 1.0 2.0 0.00 0.00 0.00 93 1009.2
20260509085900 48 53 1.0 2.0 0.00 0.00 0.00 93 1009.3
20260509085759 48 53 0.0 0.0 0.00 0.00 0.00 93 1009.2
20260509085659 49 53 0.0 0.0 0.00 0.00 0.00 93 1009.2
20260509085602 48 53 0.0 0.0 0.00 0.00 0.00 93 1009.2
20260509085400 48 53 0.0 0.0 0.00 0.00 0.00 93 1009.2
20260509085100 48 53 0.0 0.0 0.00 0.00 0.00 94 1009.2
20260509085005 48 53 0.0 0.0 0.00 0.00 0.00 94 1009.2
20260509084900 48 53 0.0 0.0 0.00 0.00 0.00 93 1009.2
20260509084800 48 53 0.0 0.0 0.00 0.00 0.00 93 1009.2
20260509084700 48 53 0.0 0.0 0.00 0.00 0.00 93 1009.2
20260509084359 48 53 0.0 0.0 0.00 0.00 0.00 94 1009.4
20260509084201 48 53 0.0 0.0 0.00 0.00 0.00 93 1009.4
20260509084100 48 53 0.0 0.0 0.00 0.00 0.00 94 1009.4
20260509084004 48 53 0.0 0.0 0.00 0.00 0.00 94 1009.4
20260509083859 48 53 0.0 0.0 0.00 0.00 0.00 94 1009.4
20260509083759 48 53 0.0 0.0 0.00 0.00 0.00 94 1009.4
20260509083700 48 53 0.0 0.0 0.00 0.00 0.00 94 1009.5
20260509083600 48 53 0.0 0.0 0.00 0.00 0.00 94 1009.4
20260509083401 48 53 0.0 0.0 0.00 0.00 0.00 94 1009.4
20260509083300 48 53 0.0 0.0 0.00 0.00 0.00 94 1009.4
20260509083100 49 53 0.0 0.0 0.00 0.00 0.00 94 1009.5
20260509083005 49 53 0.0 0.0 0.00 0.00 0.00 94 1009.5
20260509082901 48 53 0.0 0.0 0.00 0.00 0.00 94 1009.5
20260509082800 48 53 0.0 0.0 0.00 0.00 0.00 94 1009.5
20260509082659 48 53 0.0 0.0 0.00 0.00 0.00 94 1009.5
20260509082601 48 53 0.0 0.0 0.00 0.00 0.00 94 1009.5
20260509082504 48 53 0.0 0.0 0.00 0.00 0.00 93 1009.4
20260509082359 48 53 0.0 0.0 0.00 0.00 0.00 93 1009.4
20260509082259 48 53 0.0 0.0 0.00 0.00 0.00 93 1009.4
20260509082201 48 53 0.0 0.0 0.00 0.00 0.00 93 1009.4
20260509082059 48 53 0.0 0.0 0.00 0.00 0.00 93 1009.3
20260509082006 48 53 0.0 0.0 0.00 0.00 0.00 93 1009.3
20260509081800 48 53 0.0 0.0 0.00 0.00 0.00 93 1009.3
20260509081659 48 53 0.0 0.0 0.00 0.00 0.00 93 1009.3
20260509081600 48 53 0.0 0.0 0.00 0.00 0.00 93 1009.3
20260509081505 48 53 0.0 0.0 0.00 0.00 0.00 93 1009.3
20260509081359 48 53 0.0 0.0 0.00 0.00 0.00 93 1009.3
20260509081300 48 53 0.0 0.0 0.00 0.00 0.00 93 1009.3
20260509081200 48 53 0.0 0.0 0.00 0.00 0.00 93 1009.3
20260509081100 48 53 0.0 0.0 0.00 0.00 0.00 93 1009.3
20260509081005 48 53 0.0 0.0 0.00 0.00 0.00 93 1009.3
20260509080901 48 53 0.0 0.0 0.00 0.00 0.00 93 1009.4
20260509080800 48 53 0.0 0.0 0.00 0.00 0.00 93 1009.4
20260509080700 48 53 0.0 0.0 0.00 0.00 0.00 93 1009.4
20260509080559 48 53 0.0 0.0 0.00 0.00 0.00 93 1009.4
20260509080505 48 53 0.0 0.0 0.00 0.00 0.00 93 1009.4
20260509080401 48 53 0.0 0.0 0.00 0.00 0.00 93 1009.4
20260509080300 48 53 0.0 0.0 0.00 0.00 0.00 93 1009.4
20260509080201 48 53 0.0 0.0 0.00 0.00 0.00 93 1009.4
20260509080059 48 53 0.0 0.0 0.00 0.00 0.00 93 1009.4
20260509080005 48 53 0.0 0.0 0.00 0.00 0.00 93 1009.4
20260509075801 48 53 0.0 0.0 0.00 0.00 0.00 93 1009.4
20260509075700 48 53 0.0 1.0 0.00 0.00 0.00 93 1009.4
20260509075600 48 53 0.0 1.0 0.00 0.00 0.00 93 1009.4
20260509075505 48 53 0.0 1.0 0.00 0.00 0.00 93 1009.4
20260509075359 48 53 0.0 1.0 0.00 0.00 0.00 93 1009.4
20260509075200 48 53 0.0 1.0 0.00 0.00 0.00 93 1009.4
20260509075001 48 53 0.0 1.0 0.00 0.00 0.00 93 1009.4
20260509074900 48 53 0.0 1.0 0.00 0.00 0.00 93 1009.4
20260509074801 48 53 1.0 1.0 0.00 0.00 0.00 93 1009.5
20260509074659 48 53 0.0 0.0 0.00 0.00 0.00 93 1009.5
20260509074501 48 53 0.0 0.0 0.00 0.00 0.00 93 1009.5
20260509074359 48 53 0.0 0.0 0.00 0.00 0.00 93 1009.5
20260509074259 48 53 0.0 1.0 0.00 0.00 0.00 93 1009.5
20260509074200 48 53 0.0 1.0 0.00 0.00 0.00 93 1009.5
20260509074002 48 53 0.0 1.0 0.00 0.00 0.00 93 1009.6
20260509073900 48 53 0.0 1.0 0.00 0.00 0.00 93 1009.6
20260509073759 48 53 0.0 1.0 0.00 0.00 0.00 93 1009.6
20260509073659 48 53 0.0 1.0 0.00 0.00 0.00 93 1009.6
20260509073259 48 53 0.0 1.0 0.00 0.00 0.00 93 1009.6
20260509073200 48 53 1.0 1.0 0.00 0.00 0.00 93 1009.5
20260509072901 48 53 0.0 1.0 0.00 0.00 0.00 93 1009.6
20260509072801 48 53 0.0 1.0 0.00 0.00 0.00 92 1009.6
20260509072659 48 53 0.0 1.0 0.00 0.00 0.00 92 1009.6
20260509072600 48 53 0.0 1.0 0.00 0.00 0.00 92 1009.6
20260509072504 48 53 0.0 1.0 0.00 0.00 0.00 92 1009.6
20260509072259 48 53 0.0 1.0 0.00 0.00 0.00 92 1009.6
20260509072201 48 53 0.0 1.0 0.00 0.00 0.00 92 1009.6
20260509072059 48 53 0.0 1.0 0.00 0.00 0.00 92 1009.6
20260509072004 48 53 0.0 1.0 0.00 0.00 0.00 92 1009.6
20260509071900 48 53 0.0 1.0 0.00 0.00 0.00 92 1009.6
20260509071800 48 53 0.0 1.0 0.00 0.00 0.00 92 1009.7
20260509071659 48 53 0.0 1.0 0.00 0.00 0.00 92 1009.7
20260509071504 48 53 0.0 1.0 0.00 0.00 0.00 92 1009.8
20260509071359 48 53 0.0 0.0 0.00 0.00 0.00 92 1009.8
20260509071259 48 53 0.0 0.0 0.00 0.00 0.00 92 1009.8
20260509071200 48 53 0.0 0.0 0.00 0.00 0.00 92 1009.8
20260509071100 48 53 0.0 0.0 0.00 0.00 0.00 92 1009.8
20260509071004 48 53 0.0 0.0 0.00 0.00 0.00 91 1009.8
20260509070901 48 53 0.0 0.0 0.00 0.00 0.00 91 1009.8
20260509070659 48 53 0.0 0.0 0.00 0.00 0.00 91 1009.9
20260509070600 48 53 0.0 0.0 0.00 0.00 0.00 91 1009.9